| time (UTC) | temp F | wind direction | speed MPH | gust MPH | rain 1hr in | rain 24hr in | rain mn in | humidity % | barometer mb |
| 20260505121702 | 66 | 196 | 4.0 | 7.0 | 0.02 | 0.39 | 0.39 | 82 | 1012.1 |
| 20260505121603 | 66 | 175 | 2.0 | 7.0 | 0.02 | 0.39 | 0.39 | 82 | 1012.0 |
| 20260505121504 | 66 | 174 | 4.0 | 6.0 | 0.02 | 0.39 | 0.39 | 82 | 1012.0 |
| 20260505121400 | 66 | 129 | 1.0 | 5.0 | 0.02 | 0.39 | 0.39 | 82 | 1012.0 |
| 20260505121202 | 66 | 188 | 3.0 | 5.0 | 0.02 | 0.39 | 0.39 | 83 | 1012.0 |
| 20260505120902 | 66 | 178 | 2.0 | 5.0 | 0.02 | 0.39 | 0.39 | 83 | 1011.9 |
| 20260505120800 | 66 | 196 | 2.0 | 5.0 | 0.02 | 0.39 | 0.39 | 83 | 1011.9 |
| 20260505120702 | 66 | 169 | 2.0 | 5.0 | 0.02 | 0.39 | 0.39 | 83 | 1011.9 |
| 20260505120603 | 66 | 175 | 4.0 | 6.0 | 0.02 | 0.39 | 0.39 | 82 | 1011.9 |
| 20260505120500 | 66 | 158 | 1.0 | 7.0 | 0.02 | 0.39 | 0.39 | 82 | 1011.9 |
| 20260505120402 | 66 | 173 | 2.0 | 7.0 | 0.02 | 0.39 | 0.39 | 82 | 1011.9 |
| 20260505120301 | 66 | 165 | 3.0 | 7.0 | 0.02 | 0.39 | 0.39 | 82 | 1011.9 |
| 20260505120200 | 66 | 173 | 4.0 | 8.0 | 0.02 | 0.39 | 0.39 | 82 | 1012.0 |
| 20260505120124 | 66 | 159 | 3.0 | 8.0 | 0.02 | 0.39 | 0.39 | 82 | 1011.9 |
| 20260505120009 | 66 | 136 | 2.0 | 8.0 | 0.02 | 0.39 | 0.39 | 81 | 1011.9 |
| 20260505115902 | 66 | 132 | 5.0 | 8.0 | 0.01 | 0.39 | 0.39 | 81 | 1011.9 |
| 20260505115705 | 66 | 136 | 2.0 | 8.0 | 0.01 | 0.39 | 0.39 | 81 | 1011.9 |
| 20260505115602 | 66 | 148 | 5.0 | 8.0 | 0.01 | 0.39 | 0.39 | 81 | 1011.9 |
| 20260505115505 | 66 | 135 | 6.0 | 8.0 | 0.01 | 0.39 | 0.39 | 81 | 1011.9 |
| 20260505115301 | 66 | 155 | 2.0 | 8.0 | 0.01 | 0.39 | 0.39 | 81 | 1011.9 |
| 20260505115200 | 66 | 130 | 6.0 | 8.0 | 0.01 | 0.39 | 0.39 | 81 | 1011.8 |
| 20260505115105 | 67 | 134 | 6.0 | 8.0 | 0.01 | 0.39 | 0.39 | 81 | 1011.8 |
| 20260505115003 | 67 | 137 | 6.0 | 8.0 | 0.01 | 0.39 | 0.39 | 81 | 1011.9 |
| 20260505114700 | 67 | 143 | 2.0 | 8.0 | 0.01 | 0.39 | 0.39 | 78 | 1011.9 |
| 20260505114601 | 67 | 143 | 3.0 | 8.0 | 0.01 | 0.39 | 0.39 | 78 | 1012.0 |
| 20260505114359 | 67 | 164 | 4.0 | 8.0 | 0.00 | 0.38 | 0.38 | 78 | 1011.9 |
| 20260505114259 | 67 | 178 | 5.0 | 8.0 | 0.00 | 0.38 | 0.38 | 76 | 1012.0 |
| 20260505114203 | 67 | 178 | 4.0 | 8.0 | 0.00 | 0.38 | 0.38 | 76 | 1012.0 |
| 20260505114059 | 67 | 190 | 4.0 | 8.0 | 0.00 | 0.38 | 0.38 | 76 | 1012.0 |
| 20260505114000 | 68 | 162 | 3.0 | 8.0 | 0.00 | 0.38 | 0.38 | 76 | 1012.0 |
| 20260505113906 | 68 | 182 | 6.0 | 8.0 | 0.00 | 0.38 | 0.38 | 75 | 1012.0 |
| 20260505113801 | 68 | 153 | 3.0 | 11.0 | 0.00 | 0.38 | 0.38 | 75 | 1012.0 |
| 20260505113659 | 68 | 171 | 3.0 | 11.0 | 0.00 | 0.38 | 0.38 | 75 | 1012.0 |
| 20260505113359 | 68 | 164 | 2.0 | 11.0 | 0.00 | 0.38 | 0.38 | 76 | 1012.0 |
| 20260505113302 | 68 | 164 | 2.0 | 11.0 | 0.00 | 0.38 | 0.38 | 76 | 1012.1 |
| 20260505113201 | 68 | 171 | 3.0 | 11.0 | 0.00 | 0.38 | 0.38 | 77 | 1012.1 |
| 20260505113005 | 68 | 169 | 3.0 | 11.0 | 0.00 | 0.38 | 0.38 | 77 | 1012.0 |
| 20260505112801 | 68 | 186 | 10.0 | 11.0 | 0.00 | 0.38 | 0.38 | 80 | 1012.1 |
| 20260505112702 | 68 | 148 | 3.0 | 11.0 | 0.00 | 0.38 | 0.38 | 79 | 1012.1 |
| 20260505112601 | 68 | 174 | 4.0 | 11.0 | 0.00 | 0.38 | 0.38 | 79 | 1012.1 |
| 20260505112501 | 68 | 150 | 4.0 | 9.0 | 0.00 | 0.38 | 0.38 | 80 | 1012.1 |
| 20260505112407 | 68 | 130 | 7.0 | 9.0 | 0.00 | 0.38 | 0.38 | 79 | 1012.1 |
| 20260505112300 | 68 | 131 | 7.0 | 9.0 | 0.00 | 0.38 | 0.38 | 78 | 1012.0 |
| 20260505112159 | 68 | 144 | 6.0 | 9.0 | 0.00 | 0.38 | 0.38 | 78 | 1012.0 |
| 20260505112102 | 68 | 146 | 3.0 | 9.0 | 0.00 | 0.38 | 0.38 | 79 | 1012.0 |
| 20260505112000 | 68 | 138 | 4.0 | 9.0 | 0.00 | 0.38 | 0.38 | 78 | 1012.0 |
| 20260505111802 | 68 | 153 | 4.0 | 9.0 | 0.00 | 0.38 | 0.38 | 77 | 1012.0 |
| 20260505111659 | 68 | 150 | 2.0 | 9.0 | 0.00 | 0.38 | 0.38 | 77 | 1012.0 |
| 20260505111559 | 68 | 128 | 8.0 | 9.0 | 0.00 | 0.38 | 0.38 | 77 | 1012.1 |
| 20260505111502 | 68 | 132 | 7.0 | 8.0 | 0.00 | 0.38 | 0.38 | 76 | 1012.1 |
| 20260505111359 | 68 | 146 | 6.0 | 8.0 | 0.00 | 0.38 | 0.38 | 76 | 1012.1 |
| 20260505111301 | 68 | 128 | 7.0 | 8.0 | 0.00 | 0.38 | 0.38 | 75 | 1012.0 |
| 20260505111204 | 68 | 158 | 5.0 | 8.0 | 0.00 | 0.38 | 0.38 | 75 | 1012.0 |
| 20260505111101 | 68 | 132 | 2.0 | 8.0 | 0.00 | 0.38 | 0.38 | 77 | 1012.1 |
| 20260505111002 | 68 | 128 | 5.0 | 8.0 | 0.00 | 0.38 | 0.38 | 77 | 1012.1 |
| 20260505110903 | 68 | 128 | 4.0 | 8.0 | 0.00 | 0.38 | 0.38 | 77 | 1012.0 |
| 20260505110800 | 68 | 134 | 5.0 | 9.0 | 0.00 | 0.38 | 0.38 | 78 | 1012.0 |
| 20260505110659 | 68 | 128 | 6.0 | 8.0 | 0.00 | 0.38 | 0.38 | 78 | 1012.0 |
| 20260505110605 | 68 | 138 | 4.0 | 8.0 | 0.00 | 0.38 | 0.38 | 79 | 1012.0 |
| 20260505110503 | 68 | 132 | 5.0 | 9.0 | 0.00 | 0.38 | 0.38 | 78 | 1012.0 |
| 20260505110402 | 68 | 129 | 4.0 | 9.0 | 0.00 | 0.38 | 0.38 | 77 | 1012.0 |
| 20260505110306 | 68 | 128 | 2.0 | 9.0 | 0.00 | 0.38 | 0.38 | 77 | 1012.0 |
| 20260505102200 | 66 | 74 | 4.0 | 5.0 | 0.00 | 0.38 | 0.38 | 80 | 1012.3 |
| 20260505102102 | 66 | 74 | 4.0 | 4.0 | 0.00 | 0.38 | 0.38 | 80 | 1012.4 |
| 20260505102001 | 66 | 74 | 2.0 | 4.0 | 0.00 | 0.38 | 0.38 | 80 | 1012.3 |
| 20260505101905 | 66 | 74 | 3.0 | 6.0 | 0.00 | 0.38 | 0.38 | 79 | 1012.3 |
| 20260505101803 | 66 | 74 | 1.0 | 6.0 | 0.00 | 0.38 | 0.38 | 79 | 1012.3 |
| 20260505101600 | 66 | 74 | 1.0 | 6.0 | 0.00 | 0.38 | 0.38 | 79 | 1012.3 |
| 20260505101503 | 66 | 74 | 1.0 | 6.0 | 0.00 | 0.38 | 0.38 | 79 | 1012.3 |
| 20260505101359 | 66 | 74 | 2.0 | 6.0 | 0.00 | 0.38 | 0.38 | 78 | 1012.3 |
| 20260505101259 | 66 | 74 | 2.0 | 6.0 | 0.00 | 0.38 | 0.38 | 78 | 1012.3 |
| 20260505101202 | 66 | 74 | 3.0 | 6.0 | 0.00 | 0.38 | 0.38 | 78 | 1012.3 |
| 20260505101059 | 66 | 35 | 0.0 | 9.0 | 0.00 | 0.38 | 0.38 | 78 | 1012.3 |
| 20260505100801 | 66 | 57 | 5.0 | 9.0 | 0.00 | 0.38 | 0.38 | 79 | 1012.3 |
| 20260505100700 | 66 | 82 | 7.0 | 10.0 | 0.00 | 0.38 | 0.38 | 78 | 1012.3 |
| 20260505100500 | 66 | 76 | 2.0 | 10.0 | 0.00 | 0.38 | 0.38 | 79 | 1012.3 |
| 20260505100359 | 66 | 76 | 2.0 | 10.0 | 0.00 | 0.38 | 0.38 | 79 | 1012.4 |
| 20260505100302 | 66 | 76 | 3.0 | 10.0 | 0.00 | 0.38 | 0.38 | 79 | 1012.4 |
| 20260505100201 | 66 | 85 | 6.0 | 10.0 | 0.00 | 0.38 | 0.38 | 78 | 1012.4 |
| 20260505100128 | 66 | 98 | 5.0 | 10.0 | 0.00 | 0.38 | 0.38 | 78 | 1012.4 |
| 20260505095900 | 67 | 74 | 3.0 | 10.0 | 0.00 | 0.38 | 0.38 | 78 | 1012.4 |
| 20260505095800 | 67 | 80 | 6.0 | 10.0 | 0.00 | 0.38 | 0.38 | 79 | 1012.4 |
| 20260505095707 | 67 | 72 | 9.0 | 10.0 | 0.00 | 0.38 | 0.38 | 78 | 1012.4 |
| 20260505095603 | 67 | 34 | 4.0 | 9.0 | 0.00 | 0.38 | 0.38 | 79 | 1012.3 |
| 20260505095502 | 67 | 42 | 4.0 | 9.0 | 0.00 | 0.38 | 0.38 | 82 | 1012.4 |
| 20260505095404 | 67 | 47 | 3.0 | 9.0 | 0.00 | 0.38 | 0.38 | 82 | 1012.3 |
| 20260505095304 | 67 | 59 | 5.0 | 9.0 | 0.00 | 0.38 | 0.38 | 82 | 1012.4 |
| 20260505095202 | 67 | 44 | 8.0 | 9.0 | 0.00 | 0.38 | 0.38 | 82 | 1012.4 |
| 20260505095105 | 66 | 43 | 3.0 | 8.0 | 0.00 | 0.38 | 0.38 | 82 | 1012.4 |
| 20260505095004 | 66 | 51 | 4.0 | 7.0 | 0.00 | 0.38 | 0.38 | 82 | 1012.3 |
| 20260505094901 | 66 | 103 | 5.0 | 8.0 | 0.00 | 0.38 | 0.38 | 81 | 1012.3 |
| 20260505094805 | 65 | 80 | 1.0 | 8.0 | 0.00 | 0.38 | 0.38 | 82 | 1012.3 |
| 20260505094600 | 65 | 50 | 3.0 | 6.0 | 0.00 | 0.38 | 0.38 | 83 | 1012.5 |
| 20260505094503 | 65 | 46 | 3.0 | 7.0 | 0.00 | 0.38 | 0.38 | 82 | 1012.5 |
| 20260505094403 | 64 | 80 | 3.0 | 7.0 | 0.00 | 0.38 | 0.38 | 81 | 1012.5 |
| 20260505094301 | 64 | 69 | 2.0 | 7.0 | 0.00 | 0.38 | 0.38 | 81 | 1012.5 |
| 20260505094203 | 64 | 98 | 3.0 | 7.0 | 0.00 | 0.38 | 0.38 | 80 | 1012.5 |
| 20260505094101 | 64 | 94 | 5.0 | 7.0 | 0.00 | 0.38 | 0.38 | 81 | 1012.4 |
| 20260505094001 | 64 | 60 | 2.0 | 8.0 | 0.00 | 0.38 | 0.38 | 80 | 1012.5 |
| 20260505093906 | 64 | 104 | 2.0 | 8.0 | 0.00 | 0.38 | 0.38 | 81 | 1012.5 |
| 20260505093800 | 64 | 104 | 2.0 | 8.0 | 0.00 | 0.38 | 0.38 | 81 | 1012.5 |
| 20260505093702 | 64 | 104 | 2.0 | 8.0 | 0.00 | 0.38 | 0.38 | 80 | 1012.5 |
| 20260505093603 | 64 | 113 | 3.0 | 8.0 | 0.00 | 0.38 | 0.38 | 80 | 1012.5 |
| 20260505093501 | 64 | 96 | 3.0 | 10.0 | 0.00 | 0.38 | 0.38 | 81 | 1012.5 |
| 20260505093302 | 64 | 132 | 4.0 | 10.0 | 0.00 | 0.38 | 0.38 | 80 | 1012.5 |
| 20260505093159 | 64 | 113 | 4.0 | 10.0 | 0.00 | 0.38 | 0.38 | 81 | 1012.5 |
| 20260505093100 | 65 | 112 | 5.0 | 10.0 | 0.00 | 0.38 | 0.38 | 82 | 1012.5 |
| 20260505093006 | 64 | 105 | 8.0 | 10.0 | 0.00 | 0.38 | 0.38 | 82 | 1012.5 |
| 20260505092859 | 65 | 144 | 1.0 | 10.0 | 0.00 | 0.38 | 0.38 | 83 | 1012.4 |
| 20260505092759 | 64 | 107 | 4.0 | 10.0 | 0.00 | 0.38 | 0.38 | 83 | 1012.4 |
| 20260505092702 | 64 | 99 | 5.0 | 10.0 | 0.00 | 0.38 | 0.38 | 84 | 1012.4 |
| 20260505092600 | 64 | 111 | 8.0 | 10.0 | 0.00 | 0.38 | 0.38 | 84 | 1012.3 |
| 20260505092459 | 64 | 116 | 4.0 | 9.0 | 0.00 | 0.38 | 0.38 | 84 | 1012.4 |
| 20260505092402 | 64 | 86 | 3.0 | 9.0 | 0.00 | 0.38 | 0.38 | 85 | 1012.4 |
| 20260505092259 | 64 | 96 | 8.0 | 9.0 | 0.00 | 0.38 | 0.38 | 85 | 1012.4 |
| 20260505092159 | 64 | 96 | 6.0 | 9.0 | 0.00 | 0.38 | 0.38 | 85 | 1012.4 |
| 20260505092103 | 64 | 76 | 8.0 | 9.0 | 0.00 | 0.38 | 0.38 | 86 | 1012.4 |
| 20260505092002 | 64 | 130 | 5.0 | 10.0 | 0.00 | 0.38 | 0.38 | 85 | 1012.4 |
| 20260505091802 | 64 | 91 | 7.0 | 10.0 | 0.00 | 0.38 | 0.38 | 86 | 1012.4 |
| 20260505091659 | 64 | 94 | 8.0 | 10.0 | 0.00 | 0.38 | 0.38 | 87 | 1012.4 |
| 20260505091600 | 64 | 66 | 7.0 | 10.0 | 0.00 | 0.38 | 0.38 | 87 | 1012.4 |
| 20260505091506 | 64 | 71 | 9.0 | 10.0 | 0.00 | 0.38 | 0.38 | 87 | 1012.4 |
| 20260505091400 | 64 | 117 | 5.0 | 10.0 | 0.00 | 0.38 | 0.38 | 87 | 1012.5 |
| 20260505091259 | 64 | 103 | 5.0 | 10.0 | 0.00 | 0.38 | 0.38 | 88 | 1012.4 |
| 20260505091203 | 64 | 90 | 3.0 | 10.0 | 0.00 | 0.38 | 0.38 | 88 | 1012.4 |
| 20260505091059 | 63 | 86 | 8.0 | 10.0 | 0.00 | 0.38 | 0.38 | 88 | 1012.4 |
| 20260505091000 | 63 | 90 | 5.0 | 10.0 | 0.00 | 0.38 | 0.38 | 87 | 1012.4 |
| 20260505090902 | 63 | 62 | 4.0 | 10.0 | 0.00 | 0.38 | 0.38 | 87 | 1012.4 |
| 20260505090759 | 63 | 90 | 6.0 | 10.0 | 0.00 | 0.38 | 0.38 | 87 | 1012.4 |
| 20260505090659 | 63 | 97 | 7.0 | 10.0 | 0.00 | 0.38 | 0.38 | 88 | 1012.4 |
| 20260505090602 | 63 | 115 | 8.0 | 10.0 | 0.00 | 0.38 | 0.38 | 89 | 1012.5 |
| 20260505090359 | 63 | 109 | 8.0 | 10.0 | 0.00 | 0.38 | 0.38 | 90 | 1012.4 |
| 20260505090302 | 63 | 55 | 7.0 | 10.0 | 0.00 | 0.38 | 0.38 | 90 | 1012.5 |
| 20260505090200 | 63 | 48 | 7.0 | 10.0 | 0.00 | 0.38 | 0.38 | 91 | 1012.5 |
| 20260505090101 | 63 | 72 | 7.0 | 10.0 | 0.00 | 0.38 | 0.38 | 91 | 1012.5 |
| 20260505090007 | 63 | 92 | 5.0 | 9.0 | 0.00 | 0.38 | 0.38 | 91 | 1012.5 |
| 20260505085702 | 62 | 69 | 7.0 | 9.0 | 0.00 | 0.38 | 0.38 | 91 | 1012.5 |
| 20260505085559 | 62 | 103 | 2.0 | 9.0 | 0.00 | 0.38 | 0.38 | 91 | 1012.6 |
| 20260505085402 | 62 | 101 | 5.0 | 10.0 | 0.00 | 0.38 | 0.38 | 91 | 1012.6 |
| 20260505085300 | 61 | 76 | 3.0 | 10.0 | 0.00 | 0.38 | 0.38 | 91 | 1012.6 |
| 20260505085103 | 61 | 63 | 4.0 | 10.0 | 0.00 | 0.38 | 0.38 | 91 | 1012.6 |
| 20260505085000 | 61 | 74 | 7.0 | 10.0 | 0.00 | 0.38 | 0.38 | 91 | 1012.5 |
| 20260505084859 | 61 | 71 | 7.0 | 10.0 | 0.00 | 0.38 | 0.38 | 91 | 1012.4 |
| 20260505084802 | 61 | 74 | 5.0 | 10.0 | 0.00 | 0.38 | 0.38 | 91 | 1012.4 |
| 20260505084659 | 61 | 78 | 9.0 | 10.0 | 0.00 | 0.38 | 0.38 | 92 | 1012.3 |
| 20260505084509 | 61 | 76 | 9.0 | 10.0 | 0.00 | 0.38 | 0.38 | 92 | 1012.3 |
| 20260505084402 | 61 | 69 | 10.0 | 10.0 | 0.00 | 0.38 | 0.38 | 92 | 1012.4 |
| 20260505084302 | 61 | 75 | 10.0 | 10.0 | 0.00 | 0.38 | 0.38 | 92 | 1012.5 |
| 20260505084202 | 61 | 46 | 5.0 | 9.0 | 0.00 | 0.38 | 0.38 | 92 | 1012.5 |
| 20260505084059 | 61 | 93 | 5.0 | 9.0 | 0.00 | 0.38 | 0.38 | 92 | 1012.5 |
| 20260505084002 | 61 | 71 | 7.0 | 9.0 | 0.00 | 0.38 | 0.38 | 92 | 1012.5 |
| 20260505083907 | 61 | 44 | 3.0 | 9.0 | 0.00 | 0.38 | 0.38 | 92 | 1012.5 |
| 20260505083703 | 61 | 70 | 4.0 | 9.0 | 0.00 | 0.38 | 0.38 | 93 | 1012.6 |
| 20260505083604 | 61 | 71 | 4.0 | 10.0 | 0.00 | 0.38 | 0.38 | 93 | 1012.6 |
| 20260505083501 | 61 | 90 | 6.0 | 10.0 | 0.00 | 0.38 | 0.38 | 93 | 1012.6 |
| 20260505083400 | 61 | 67 | 9.0 | 10.0 | 0.00 | 0.38 | 0.38 | 93 | 1012.5 |
| 20260505083304 | 61 | 93 | 7.0 | 10.0 | 0.00 | 0.38 | 0.38 | 93 | 1012.5 |
| 20260505083100 | 61 | 87 | 6.0 | 10.0 | 0.00 | 0.38 | 0.38 | 93 | 1012.5 |
| 20260505083006 | 61 | 71 | 2.0 | 10.0 | 0.00 | 0.38 | 0.38 | 94 | 1012.5 |
| 20260505082859 | 61 | 102 | 7.0 | 10.0 | 0.00 | 0.38 | 0.38 | 94 | 1012.5 |
| 20260505082706 | 60 | 77 | 9.0 | 10.0 | 0.00 | 0.38 | 0.38 | 94 | 1012.5 |
| 20260505082600 | 60 | 91 | 3.0 | 10.0 | 0.00 | 0.38 | 0.38 | 94 | 1012.5 |
| 20260505082404 | 60 | 66 | 8.0 | 10.0 | 0.00 | 0.38 | 0.38 | 95 | 1012.5 |
| 20260505082301 | 60 | 63 | 7.0 | 8.0 | 0.00 | 0.38 | 0.38 | 94 | 1012.5 |
| 20260505082159 | 59 | 77 | 7.0 | 8.0 | 0.00 | 0.38 | 0.38 | 94 | 1012.5 |
| 20260505082103 | 59 | 67 | 7.0 | 8.0 | 0.00 | 0.38 | 0.38 | 94 | 1012.5 |
| 20260505082002 | 59 | 74 | 4.0 | 8.0 | 0.00 | 0.38 | 0.38 | 94 | 1012.5 |
| 20260505081859 | 59 | 90 | 5.0 | 8.0 | 0.00 | 0.38 | 0.38 | 94 | 1012.6 |
| 20260505081802 | 59 | 113 | 4.0 | 8.0 | 0.00 | 0.38 | 0.38 | 94 | 1012.5 |
| 20260505081659 | 59 | 108 | 5.0 | 8.0 | 0.00 | 0.38 | 0.38 | 94 | 1012.5 |
| 20260505081602 | 59 | 92 | 5.0 | 8.0 | 0.00 | 0.38 | 0.38 | 94 | 1012.5 |
| 20260505081501 | 59 | 92 | 7.0 | 10.0 | 0.00 | 0.38 | 0.38 | 94 | 1012.5 |
| 20260505081200 | 59 | 96 | 6.0 | 10.0 | 0.00 | 0.38 | 0.38 | 94 | 1012.5 |
| 20260505081106 | 59 | 90 | 5.0 | 10.0 | 0.00 | 0.38 | 0.38 | 95 | 1012.5 |
| 20260505080900 | 59 | 57 | 3.0 | 10.0 | 0.00 | 0.38 | 0.38 | 95 | 1012.4 |
| 20260505080802 | 59 | 120 | 2.0 | 10.0 | 0.00 | 0.38 | 0.38 | 95 | 1012.4 |
| 20260505080700 | 58 | 112 | 8.0 | 10.0 | 0.00 | 0.38 | 0.38 | 94 | 1012.4 |
| 20260505080601 | 58 | 101 | 5.0 | 10.0 | 0.00 | 0.38 | 0.38 | 94 | 1012.4 |
| 20260505080503 | 58 | 101 | 6.0 | 9.0 | 0.00 | 0.38 | 0.38 | 94 | 1012.4 |
| 20260505080400 | 58 | 96 | 7.0 | 9.0 | 0.00 | 0.38 | 0.38 | 94 | 1012.3 |
| 20260505080301 | 58 | 107 | 7.0 | 9.0 | 0.00 | 0.38 | 0.38 | 94 | 1012.4 |
| 20260505080202 | 58 | 117 | 5.0 | 9.0 | 0.00 | 0.38 | 0.38 | 94 | 1012.4 |
| 20260505080119 | 58 | 92 | 6.0 | 8.0 | 0.00 | 0.38 | 0.38 | 94 | 1012.4 |
| 20260505080005 | 58 | 124 | 4.0 | 8.0 | 0.00 | 0.38 | 0.38 | 94 | 1012.4 |
| 20260505075906 | 58 | 129 | 4.0 | 8.0 | 0.00 | 0.38 | 0.38 | 94 | 1012.4 |
| 20260505075700 | 58 | 136 | 4.0 | 8.0 | 0.00 | 0.38 | 0.38 | 94 | 1012.4 |
| 20260505075603 | 58 | 131 | 5.0 | 8.0 | 0.01 | 0.38 | 0.38 | 94 | 1012.5 |
| 20260505075501 | 58 | 130 | 4.0 | 8.0 | 0.01 | 0.38 | 0.38 | 94 | 1012.4 |
| 20260505075304 | 58 | 115 | 7.0 | 8.0 | 0.01 | 0.38 | 0.38 | 94 | 1012.5 |
| 20260505075200 | 58 | 113 | 5.0 | 7.0 | 0.01 | 0.38 | 0.38 | 94 | 1012.6 |
| 20260505075104 | 58 | 112 | 7.0 | 7.0 | 0.01 | 0.38 | 0.38 | 94 | 1012.5 |
| 20260505075005 | 58 | 104 | 3.0 | 6.0 | 0.01 | 0.38 | 0.38 | 94 | 1012.5 |
| 20260505074900 | 58 | 113 | 4.0 | 8.0 | 0.02 | 0.38 | 0.38 | 94 | 1012.5 |
| 20260505074800 | 57 | 82 | 3.0 | 8.0 | 0.02 | 0.38 | 0.38 | 94 | 1012.6 |
| 20260505074600 | 57 | 114 | 2.0 | 8.0 | 0.03 | 0.38 | 0.38 | 94 | 1012.5 |
| 20260505074500 | 58 | 89 | 3.0 | 8.0 | 0.04 | 0.38 | 0.38 | 94 | 1012.6 |
| 20260505074402 | 57 | 96 | 5.0 | 8.0 | 0.04 | 0.38 | 0.38 | 94 | 1012.5 |
| 20260505074300 | 57 | 125 | 2.0 | 8.0 | 0.05 | 0.38 | 0.38 | 94 | 1012.6 |
| 20260505074200 | 58 | 121 | 3.0 | 8.0 | 0.06 | 0.38 | 0.38 | 94 | 1012.5 |
| 20260505074103 | 58 | 113 | 3.0 | 8.0 | 0.07 | 0.38 | 0.38 | 94 | 1012.5 |
| 20260505074001 | 58 | 88 | 5.0 | 8.0 | 0.08 | 0.38 | 0.38 | 94 | 1012.5 |
| 20260505073900 | 57 | 118 | 7.0 | 8.0 | 0.09 | 0.38 | 0.38 | 94 | 1012.5 |
| 20260505073802 | 57 | 122 | 3.0 | 8.0 | 0.12 | 0.38 | 0.38 | 94 | 1012.5 |
| 20260505073701 | 57 | 93 | 5.0 | 8.0 | 0.13 | 0.38 | 0.38 | 94 | 1012.5 |
| 20260505073601 | 57 | 119 | 4.0 | 8.0 | 0.14 | 0.38 | 0.38 | 94 | 1012.4 |
| 20260505073503 | 57 | 123 | 4.0 | 8.0 | 0.15 | 0.38 | 0.38 | 94 | 1012.4 |
| 20260505073401 | 57 | 130 | 4.0 | 6.0 | 0.16 | 0.38 | 0.38 | 94 | 1012.4 |
| 20260505073300 | 57 | 109 | 4.0 | 6.0 | 0.17 | 0.38 | 0.38 | 94 | 1012.3 |
| 20260505073206 | 57 | 128 | 5.0 | 6.0 | 0.17 | 0.38 | 0.38 | 94 | 1012.3 |
| 20260505073101 | 57 | 130 | 4.0 | 6.0 | 0.18 | 0.38 | 0.38 | 94 | 1012.4 |
| 20260505072905 | 57 | 108 | 3.0 | 5.0 | 0.19 | 0.38 | 0.38 | 94 | 1012.4 |
| 20260505072800 | 57 | 96 | 3.0 | 5.0 | 0.21 | 0.38 | 0.38 | 94 | 1012.4 |
| 20260505072700 | 57 | 104 | 3.0 | 6.0 | 0.22 | 0.38 | 0.38 | 94 | 1012.4 |
| 20260505072604 | 57 | 97 | 5.0 | 6.0 | 0.22 | 0.38 | 0.38 | 94 | 1012.4 |
| 20260505072501 | 56 | 104 | 3.0 | 6.0 | 0.23 | 0.38 | 0.38 | 94 | 1012.5 |
| 20260505072402 | 56 | 94 | 5.0 | 5.0 | 0.23 | 0.38 | 0.38 | 94 | 1012.5 |
| 20260505072305 | 56 | 117 | 2.0 | 5.0 | 0.23 | 0.38 | 0.38 | 94 | 1012.5 |
| 20260505072201 | 56 | 95 | 3.0 | 5.0 | 0.24 | 0.38 | 0.38 | 94 | 1012.5 |
| 20260505072102 | 56 | 75 | 2.0 | 5.0 | 0.24 | 0.38 | 0.38 | 94 | 1012.5 |
| 20260505072005 | 56 | 75 | 4.0 | 5.0 | 0.24 | 0.38 | 0.38 | 93 | 1012.5 |
| 20260505071903 | 56 | 74 | 4.0 | 6.0 | 0.25 | 0.38 | 0.38 | 93 | 1012.6 |
| 20260505071801 | 56 | 78 | 1.0 | 6.0 | 0.26 | 0.38 | 0.38 | 93 | 1012.6 |
| 20260505071705 | 56 | 78 | 2.0 | 6.0 | 0.26 | 0.38 | 0.38 | 93 | 1012.6 |
| 20260505071601 | 56 | 92 | 2.0 | 6.0 | 0.27 | 0.38 | 0.38 | 93 | 1012.7 |
| 20260505071500 | 56 | 92 | 1.0 | 6.0 | 0.28 | 0.38 | 0.38 | 93 | 1012.7 |
| 20260505071300 | 56 | 92 | 1.0 | 6.0 | 0.28 | 0.38 | 0.38 | 93 | 1012.8 |
| 20260505071203 | 56 | 92 | 2.0 | 6.0 | 0.28 | 0.38 | 0.38 | 93 | 1012.8 |
| 20260505071104 | 56 | 79 | 5.0 | 6.0 | 0.29 | 0.38 | 0.38 | 93 | 1012.7 |
| 20260505071002 | 56 | 101 | 3.0 | 6.0 | 0.29 | 0.38 | 0.38 | 93 | 1012.8 |
| 20260505070901 | 56 | 103 | 4.0 | 5.0 | 0.29 | 0.38 | 0.38 | 93 | 1012.8 |
| 20260505070806 | 56 | 119 | 3.0 | 5.0 | 0.29 | 0.38 | 0.38 | 93 | 1012.8 |
| 20260505070704 | 56 | 118 | 3.0 | 5.0 | 0.30 | 0.38 | 0.38 | 93 | 1013.0 |
| 20260505070601 | 56 | 130 | 3.0 | 5.0 | 0.31 | 0.38 | 0.38 | 93 | 1013.0 |
| 20260505070503 | 56 | 244 | 1.0 | 5.0 | 0.31 | 0.38 | 0.38 | 93 | 1013.0 |
| 20260505070400 | 56 | 265 | 0.0 | 5.0 | 0.31 | 0.38 | 0.38 | 93 | 1013.0 |
| 20260505070259 | 56 | 265 | 0.0 | 5.0 | 0.31 | 0.38 | 0.38 | 92 | 1013.0 |
| 20260505070203 | 56 | 265 | 2.0 | 5.0 | 0.31 | 0.38 | 0.38 | 92 | 1013.0 |
| 20260505070005 | 56 | 263 | 3.0 | 5.0 | 0.31 | 0.38 | 0.38 | 92 | 1013.1 |
| 20260505065903 | 56 | 265 | 3.0 | 5.0 | 0.31 | 0.38 | 0.38 | 92 | 1013.1 |
| 20260505065800 | 56 | 260 | 3.0 | 5.0 | 0.31 | 0.38 | 0.38 | 92 | 1013.0 |
| 20260505065700 | 56 | 259 | 5.0 | 5.0 | 0.31 | 0.38 | 0.38 | 92 | 1013.0 |
| 20260505065603 | 56 | 269 | 2.0 | 5.0 | 0.31 | 0.37 | 0.37 | 92 | 1013.1 |
| 20260505065500 | 56 | 267 | 2.0 | 4.0 | 0.31 | 0.37 | 0.37 | 92 | 1013.1 |
| 20260505065400 | 56 | 265 | 2.0 | 4.0 | 0.31 | 0.37 | 0.37 | 92 | 1013.1 |
| 20260505065303 | 56 | 258 | 3.0 | 4.0 | 0.31 | 0.37 | 0.37 | 92 | 1013.1 |
| 20260505065200 | 56 | 257 | 2.0 | 4.0 | 0.31 | 0.37 | 0.37 | 92 | 1013.1 |
| 20260505065100 | 56 | 243 | 3.0 | 4.0 | 0.31 | 0.37 | 0.37 | 92 | 1013.1 |
| 20260505065005 | 56 | 264 | 1.0 | 4.0 | 0.31 | 0.36 | 0.36 | 92 | 1013.1 |
| 20260505064800 | 56 | 248 | 2.0 | 4.0 | 0.31 | 0.35 | 0.35 | 92 | 1013.2 |
| 20260505064703 | 56 | 248 | 3.0 | 4.0 | 0.30 | 0.35 | 0.35 | 92 | 1013.2 |
| 20260505064500 | 56 | 248 | 2.0 | 3.0 | 0.29 | 0.34 | 0.34 | 91 | 1013.1 |
| 20260505064301 | 56 | 219 | 2.0 | 3.0 | 0.29 | 0.33 | 0.33 | 91 | 1013.1 |
| 20260505064159 | 56 | 188 | 2.0 | 3.0 | 0.28 | 0.32 | 0.32 | 91 | 1013.0 |
| 20260505064103 | 56 | 188 | 1.0 | 3.0 | 0.27 | 0.31 | 0.31 | 91 | 1013.0 |
| 20260505064003 | 56 | 188 | 1.0 | 3.0 | 0.26 | 0.30 | 0.30 | 91 | 1012.9 |
| 20260505063900 | 56 | 188 | 1.0 | 3.0 | 0.24 | 0.28 | 0.28 | 91 | 1012.9 |
| 20260505063601 | 56 | 188 | 3.0 | 3.0 | 0.20 | 0.24 | 0.24 | 91 | 1012.9 |
| 20260505063509 | 56 | 188 | 2.0 | 3.0 | 0.20 | 0.23 | 0.23 | 91 | 1012.9 |
| 20260505063300 | 56 | 188 | 2.0 | 3.0 | 0.18 | 0.21 | 0.21 | 91 | 1012.8 |
| 20260505063202 | 56 | 188 | 1.0 | 2.0 | 0.17 | 0.20 | 0.20 | 91 | 1012.8 |
| 20260505063100 | 56 | 188 | 1.0 | 3.0 | 0.17 | 0.20 | 0.20 | 91 | 1012.7 |
| 20260505063000 | 56 | 188 | 1.0 | 3.0 | 0.16 | 0.19 | 0.19 | 91 | 1012.7 |
| 20260505062759 | 56 | 188 | 1.0 | 4.0 | 0.13 | 0.17 | 0.17 | 91 | 1012.8 |
| 20260505062659 | 56 | 189 | 1.0 | 4.0 | 0.13 | 0.16 | 0.16 | 90 | 1012.8 |
| 20260505062605 | 56 | 197 | 1.0 | 4.0 | 0.12 | 0.15 | 0.15 | 90 | 1012.8 |
| 20260505062500 | 56 | 197 | 0.0 | 4.0 | 0.12 | 0.15 | 0.15 | 90 | 1012.8 |
| 20260505062400 | 56 | 197 | 0.0 | 4.0 | 0.12 | 0.15 | 0.15 | 90 | 1012.9 |
| 20260505062304 | 57 | 197 | 0.0 | 4.0 | 0.11 | 0.14 | 0.14 | 90 | 1012.9 |
| 20260505062200 | 57 | 197 | 2.0 | 4.0 | 0.10 | 0.13 | 0.13 | 90 | 1013.0 |
| 20260505062059 | 57 | 197 | 3.0 | 5.0 | 0.10 | 0.13 | 0.13 | 90 | 1013.0 |
| 20260505062003 | 57 | 197 | 1.0 | 5.0 | 0.09 | 0.13 | 0.13 | 90 | 1013.0 |
| 20260505061900 | 57 | 197 | 2.0 | 5.0 | 0.09 | 0.13 | 0.13 | 90 | 1013.0 |
| 20260505061800 | 57 | 191 | 2.0 | 6.0 | 0.09 | 0.12 | 0.12 | 90 | 1013.0 |
| 20260505061703 | 57 | 191 | 2.0 | 6.0 | 0.09 | 0.12 | 0.12 | 90 | 1013.0 |
| 20260505061559 | 57 | 191 | 1.0 | 6.0 | 0.08 | 0.11 | 0.11 | 90 | 1012.9 |
| 20260505061500 | 57 | 191 | 1.0 | 6.0 | 0.07 | 0.10 | 0.10 | 90 | 1012.9 |
| 20260505061300 | 57 | 191 | 2.0 | 6.0 | 0.06 | 0.09 | 0.09 | 89 | 1012.9 |
| 20260505061159 | 57 | 191 | 3.0 | 6.0 | 0.06 | 0.09 | 0.09 | 89 | 1012.8 |
| 20260505061103 | 57 | 191 | 4.0 | 6.0 | 0.06 | 0.09 | 0.09 | 89 | 1012.8 |
| 20260505061001 | 57 | 193 | 2.0 | 6.0 | 0.06 | 0.09 | 0.09 | 89 | 1012.7 |
| 20260505060900 | 57 | 192 | 5.0 | 6.0 | 0.06 | 0.09 | 0.09 | 89 | 1012.7 |
| 20260505060803 | 57 | 182 | 5.0 | 5.0 | 0.05 | 0.08 | 0.08 | 89 | 1012.7 |
| 20260505060700 | 57 | 174 | 2.0 | 3.0 | 0.05 | 0.08 | 0.08 | 89 | 1012.7 |
| 20260505060604 | 57 | 174 | 2.0 | 3.0 | 0.04 | 0.07 | 0.07 | 89 | 1012.6 |
| 20260505060506 | 57 | 174 | 2.0 | 4.0 | 0.04 | 0.07 | 0.07 | 89 | 1012.6 |
| 20260505060403 | 57 | 174 | 3.0 | 4.0 | 0.04 | 0.07 | 0.07 | 89 | 1012.6 |
| 20260505060302 | 57 | 174 | 0.0 | 5.0 | 0.04 | 0.07 | 0.07 | 89 | 1012.6 |
| 20260505060202 | 57 | 174 | 0.0 | 5.0 | 0.03 | 0.06 | 0.06 | 89 | 1012.5 |
| 20260505060119 | 57 | 174 | 0.0 | 5.0 | 0.03 | 0.06 | 0.06 | 89 | 1012.6 |
| 20260505060006 | 57 | 207 | 1.0 | 5.0 | 0.03 | 0.06 | 0.06 | 89 | 1012.6 |
| 20260505055904 | 57 | 207 | 2.0 | 5.0 | 0.03 | 0.06 | 0.06 | 89 | 1012.6 |
| 20260505055800 | 57 | 207 | 0.0 | 5.0 | 0.03 | 0.06 | 0.06 | 89 | 1012.6 |
| 20260505055700 | 57 | 207 | 3.0 | 5.0 | 0.03 | 0.06 | 0.06 | 89 | 1012.6 |
| 20260505055605 | 57 | 207 | 2.0 | 5.0 | 0.03 | 0.06 | 0.06 | 89 | 1012.6 |
| 20260505055401 | 57 | 207 | 4.0 | 5.0 | 0.03 | 0.06 | 0.06 | 89 | 1012.6 |
| 20260505055305 | 57 | 211 | 4.0 | 6.0 | 0.03 | 0.06 | 0.06 | 89 | 1012.6 |
| 20260505055100 | 57 | 204 | 3.0 | 6.0 | 0.02 | 0.06 | 0.06 | 89 | 1012.4 |
| 20260505055004 | 57 | 190 | 3.0 | 6.0 | 0.02 | 0.06 | 0.06 | 89 | 1012.4 |
| 20260505054901 | 57 | 190 | 2.0 | 6.0 | 0.02 | 0.06 | 0.06 | 89 | 1012.4 |
| 20260505054759 | 57 | 190 | 3.0 | 6.0 | 0.02 | 0.05 | 0.05 | 89 | 1012.4 |
| 20260505054702 | 57 | 190 | 2.0 | 6.0 | 0.02 | 0.05 | 0.05 | 89 | 1012.4 |
| 20260505054500 | 57 | 190 | 2.0 | 6.0 | 0.02 | 0.05 | 0.05 | 89 | 1012.4 |
| 20260505054403 | 57 | 190 | 4.0 | 6.0 | 0.01 | 0.04 | 0.04 | 89 | 1012.4 |
| 20260505054300 | 57 | 167 | 2.0 | 6.0 | 0.01 | 0.04 | 0.04 | 89 | 1012.4 |
| 20260505054200 | 57 | 202 | 2.0 | 6.0 | 0.01 | 0.04 | 0.04 | 89 | 1012.4 |
| 20260505054102 | 57 | 201 | 3.0 | 6.0 | 0.01 | 0.04 | 0.04 | 89 | 1012.4 |
| 20260505054000 | 57 | 194 | 4.0 | 6.0 | 0.01 | 0.04 | 0.04 | 89 | 1012.4 |
| 20260505053900 | 57 | 211 | 2.0 | 3.0 | 0.01 | 0.04 | 0.04 | 89 | 1012.3 |
| 20260505053802 | 57 | 211 | 2.0 | 3.0 | 0.01 | 0.04 | 0.04 | 89 | 1012.4 |
| 20260505053700 | 57 | 211 | 1.0 | 4.0 | 0.01 | 0.04 | 0.04 | 89 | 1012.4 |
| 20260505053559 | 57 | 210 | 2.0 | 4.0 | 0.00 | 0.03 | 0.03 | 89 | 1012.4 |
| 20260505053502 | 57 | 210 | 2.0 | 4.0 | 0.00 | 0.03 | 0.03 | 89 | 1012.3 |
| 20260505053300 | 57 | 210 | 2.0 | 4.0 | 0.00 | 0.03 | 0.03 | 89 | 1012.3 |
| 20260505053203 | 57 | 210 | 2.0 | 4.0 | 0.00 | 0.03 | 0.03 | 89 | 1012.4 |
| 20260505053000 | 57 | 210 | 1.0 | 4.0 | 0.00 | 0.03 | 0.03 | 89 | 1012.3 |
| 20260505052800 | 57 | 212 | 2.0 | 4.0 | 0.00 | 0.03 | 0.03 | 88 | 1012.4 |
| 20260505052700 | 57 | 252 | 1.0 | 3.0 | 0.00 | 0.03 | 0.03 | 88 | 1012.4 |
| 20260505052602 | 57 | 252 | 0.0 | 4.0 | 0.00 | 0.03 | 0.03 | 88 | 1012.3 |
| 20260505052500 | 57 | 252 | 0.0 | 4.0 | 0.00 | 0.03 | 0.03 | 88 | 1012.4 |
| 20260505052400 | 57 | 252 | 1.0 | 4.0 | 0.00 | 0.03 | 0.03 | 88 | 1012.4 |
| 20260505052004 | 56 | 267 | 2.0 | 4.0 | 0.00 | 0.03 | 0.03 | 88 | 1012.5 |
| 20260505051900 | 56 | 232 | 2.0 | 4.0 | 0.00 | 0.03 | 0.03 | 88 | 1012.4 |
| 20260505051800 | 56 | 200 | 2.0 | 4.0 | 0.00 | 0.03 | 0.03 | 88 | 1012.4 |
| 20260505051702 | 56 | 200 | 3.0 | 4.0 | 0.00 | 0.03 | 0.03 | 88 | 1012.4 |
| 20260505051500 | 56 | 113 | 1.0 | 3.0 | 0.00 | 0.03 | 0.03 | 88 | 1012.4 |
| 20260505051402 | 56 | 217 | 0.0 | 3.0 | 0.00 | 0.03 | 0.03 | 88 | 1012.4 |
| 20260505051300 | 56 | 217 | 1.0 | 3.0 | 0.00 | 0.03 | 0.03 | 88 | 1012.4 |
| 20260505051159 | 56 | 217 | 1.0 | 3.0 | 0.00 | 0.03 | 0.03 | 88 | 1012.4 |
| 20260505051102 | 56 | 217 | 1.0 | 3.0 | 0.00 | 0.03 | 0.03 | 88 | 1012.4 |
| 20260505051000 | 56 | 98 | 1.0 | 3.0 | 0.00 | 0.03 | 0.03 | 88 | 1012.4 |
| 20260505050900 | 56 | 84 | 0.0 | 4.0 | 0.00 | 0.03 | 0.03 | 88 | 1012.4 |
| 20260505050802 | 56 | 84 | 1.0 | 4.0 | 0.00 | 0.03 | 0.03 | 88 | 1012.5 |
| 20260505050700 | 56 | 84 | 0.0 | 4.0 | 0.00 | 0.03 | 0.03 | 88 | 1012.4 |
| 20260505050601 | 56 | 84 | 0.0 | 4.0 | 0.00 | 0.03 | 0.03 | 88 | 1012.4 |
| 20260505050404 | 56 | 84 | 0.0 | 4.0 | 0.00 | 0.03 | 0.03 | 87 | 1012.4 |
| 20260505050303 | 56 | 84 | 0.0 | 4.0 | 0.00 | 0.03 | 0.03 | 87 | 1012.4 |
| 20260505050204 | 56 | 86 | 1.0 | 4.0 | 0.00 | 0.03 | 0.03 | 87 | 1012.4 |
| 20260505041703 | 56 | 188 | 4.0 | 9.0 | 0.03 | 0.03 | 0.03 | 87 | 1012.5 |
| 20260505041600 | 56 | 188 | 4.0 | 9.0 | 0.03 | 0.03 | 0.03 | 87 | 1012.5 |
| 20260505041500 | 56 | 182 | 3.0 | 8.0 | 0.03 | 0.03 | 0.03 | 87 | 1012.5 |
| 20260505041407 | 55 | 171 | 3.0 | 9.0 | 0.03 | 0.03 | 0.03 | 87 | 1012.5 |
| 20260505041301 | 56 | 166 | 2.0 | 9.0 | 0.03 | 0.03 | 0.03 | 87 | 1012.5 |
| 20260505041103 | 56 | 177 | 2.0 | 9.0 | 0.03 | 0.03 | 0.03 | 87 | 1012.5 |
| 20260505041001 | 56 | 199 | 3.0 | 9.0 | 0.03 | 0.03 | 0.03 | 87 | 1012.5 |
| 20260505040900 | 56 | 198 | 0.0 | 9.0 | 0.03 | 0.03 | 0.03 | 87 | 1012.5 |
| 20260505040803 | 56 | 196 | 3.0 | 9.0 | 0.03 | 0.03 | 0.03 | 87 | 1012.5 |
| 20260505040700 | 56 | 188 | 3.0 | 9.0 | 0.03 | 0.03 | 0.03 | 87 | 1012.5 |
| 20260505040600 | 56 | 165 | 4.0 | 9.0 | 0.03 | 0.03 | 0.03 | 86 | 1012.5 |
| 20260505040502 | 56 | 145 | 4.0 | 9.0 | 0.03 | 0.03 | 0.03 | 86 | 1012.5 |
| 20260505040359 | 56 | 198 | 6.0 | 7.0 | 0.03 | 0.03 | 0.03 | 86 | 1012.5 |
| 20260505040300 | 56 | 176 | 2.0 | 7.0 | 0.03 | 0.03 | 0.03 | 86 | 1012.5 |
| 20260505040202 | 56 | 175 | 1.0 | 7.0 | 0.03 | 0.03 | 0.03 | 86 | 1012.5 |
| 20260505040111 | 56 | 171 | 2.0 | 7.0 | 0.02 | 0.02 | 0.02 | 86 | 1012.5 |
| 20260505040004 | 56 | 180 | 2.0 | 7.0 | 0.02 | 0.02 | 0.02 | 86 | 1012.5 |
| 20260505035903 | 56 | 182 | 6.0 | 7.0 | 0.02 | 0.02 | 0.02 | 85 | 1012.5 |
| 20260505035801 | 56 | 175 | 3.0 | 7.0 | 0.02 | 0.02 | 0.02 | 85 | 1012.6 |
| 20260505035700 | 56 | 196 | 5.0 | 7.0 | 0.02 | 0.02 | 0.02 | 85 | 1012.5 |
| 20260505035605 | 56 | 173 | 1.0 | 6.0 | 0.02 | 0.02 | 0.02 | 85 | 1012.5 |
| 20260505035359 | 56 | 178 | 5.0 | 6.0 | 0.02 | 0.02 | 0.02 | 84 | 1012.6 |
| 20260505035304 | 56 | 176 | 2.0 | 6.0 | 0.02 | 0.02 | 0.02 | 84 | 1012.6 |
| 20260505035159 | 56 | 178 | 0.0 | 6.0 | 0.02 | 0.02 | 0.02 | 84 | 1012.5 |
| 20260505034900 | 56 | 178 | 2.0 | 6.0 | 0.02 | 0.02 | 0.02 | 84 | 1012.6 |
| 20260505034759 | 56 | 173 | 3.0 | 6.0 | 0.02 | 0.02 | 0.02 | 83 | 1012.6 |
| 20260505034704 | 56 | 180 | 4.0 | 6.0 | 0.02 | 0.02 | 0.02 | 83 | 1012.6 |
| 20260505034502 | 56 | 180 | 2.0 | 9.0 | 0.02 | 0.02 | 0.02 | 83 | 1012.6 |
| 20260505034402 | 56 | 180 | 3.0 | 9.0 | 0.02 | 0.02 | 0.02 | 83 | 1012.6 |
| 20260505034259 | 56 | 180 | 1.0 | 9.0 | 0.02 | 0.02 | 0.02 | 82 | 1012.6 |
| 20260505034000 | 56 | 182 | 4.0 | 10.0 | 0.01 | 0.01 | 0.01 | 82 | 1012.6 |
| 20260505033900 | 56 | 175 | 4.0 | 10.0 | 0.01 | 0.01 | 0.01 | 82 | 1012.6 |
| 20260505033803 | 56 | 169 | 6.0 | 10.0 | 0.01 | 0.01 | 0.01 | 82 | 1012.6 |
| 20260505033700 | 56 | 158 | 4.0 | 10.0 | 0.01 | 0.01 | 0.01 | 82 | 1012.6 |
| 20260505033506 | 56 | 188 | 5.0 | 10.0 | 0.01 | 0.01 | 0.01 | 82 | 1012.6 |
| 20260505033401 | 57 | 186 | 5.0 | 10.0 | 0.01 | 0.01 | 0.01 | 82 | 1012.7 |
| 20260505033300 | 57 | 184 | 7.0 | 10.0 | 0.01 | 0.01 | 0.01 | 82 | 1012.7 |
| 20260505033202 | 57 | 187 | 7.0 | 10.0 | 0.01 | 0.01 | 0.01 | 82 | 1012.7 |
| 20260505033101 | 57 | 182 | 8.0 | 9.0 | 0.01 | 0.01 | 0.01 | 82 | 1012.8 |
| 20260505032903 | 57 | 178 | 4.0 | 9.0 | 0.01 | 0.01 | 0.01 | 81 | 1012.7 |
| 20260505032801 | 57 | 198 | 6.0 | 8.0 | 0.01 | 0.01 | 0.01 | 81 | 1012.8 |
| 20260505032701 | 57 | 176 | 5.0 | 8.0 | 0.01 | 0.01 | 0.01 | 81 | 1012.7 |
| 20260505032603 | 57 | 188 | 6.0 | 8.0 | 0.01 | 0.01 | 0.01 | 81 | 1012.7 |
| 20260505032502 | 57 | 188 | 5.0 | 8.0 | 0.01 | 0.01 | 0.01 | 81 | 1012.8 |
| 20260505032402 | 57 | 189 | 4.0 | 8.0 | 0.00 | 0.00 | 0.00 | 81 | 1012.7 |
| 20260505032159 | 57 | 190 | 5.0 | 8.0 | 0.00 | 0.00 | 0.00 | 81 | 1012.8 |
| 20260505031703 | 57 | 179 | 4.0 | 6.0 | 0.00 | 0.00 | 0.00 | 80 | 1012.8 |
| 20260505031600 | 57 | 186 | 5.0 | 6.0 | 0.00 | 0.00 | 0.00 | 80 | 1012.8 |
| 20260505031502 | 57 | 192 | 5.0 | 6.0 | 0.00 | 0.00 | 0.00 | 80 | 1012.9 |
| 20260505031301 | 57 | 180 | 4.0 | 4.0 | 0.00 | 0.00 | 0.00 | 79 | 1012.9 |
| 20260505031159 | 57 | 180 | 4.0 | 4.0 | 0.00 | 0.00 | 0.00 | 79 | 1012.9 |
| 20260505031102 | 57 | 180 | 4.0 | 4.0 | 0.00 | 0.00 | 0.00 | 79 | 1012.9 |
| 20260505031000 | 57 | 171 | 3.0 | 4.0 | 0.00 | 0.00 | 0.00 | 79 | 1012.8 |
| 20260505030900 | 57 | 171 | 4.0 | 4.0 | 0.00 | 0.00 | 0.00 | 79 | 1012.9 |
| 20260505030802 | 57 | 165 | 3.0 | 4.0 | 0.00 | 0.00 | 0.00 | 79 | 1012.9 |
| 20260505030659 | 57 | 167 | 3.0 | 4.0 | 0.00 | 0.00 | 0.00 | 79 | 1012.9 |
| 20260505030559 | 57 | 180 | 2.0 | 4.0 | 0.00 | 0.00 | 0.00 | 79 | 1012.9 |
| 20260505030504 | 57 | 136 | 2.0 | 4.0 | 0.00 | 0.00 | 0.00 | 79 | 1012.9 |
| 20260505030400 | 57 | 136 | 3.0 | 4.0 | 0.00 | 0.00 | 0.00 | 79 | 1012.9 |
| 20260505030301 | 57 | 80 | 2.0 | 3.0 | 0.00 | 0.00 | 0.00 | 79 | 1012.9 |
| 20260505030202 | 57 | 80 | 2.0 | 3.0 | 0.00 | 0.00 | 0.00 | 79 | 1012.8 |
| 20260505030101 | 57 | 80 | 2.0 | 3.0 | 0.00 | 0.00 | 0.00 | 79 | 1012.8 |
| 20260505030008 | 57 | 80 | 1.0 | 3.0 | 0.00 | 0.00 | 0.00 | 79 | 1012.8 |
| 20260505025905 | 57 | 80 | 2.0 | 3.0 | 0.00 | 0.00 | 0.00 | 78 | 1012.8 |
| 20260505025800 | 57 | 80 | 3.0 | 3.0 | 0.00 | 0.00 | 0.00 | 78 | 1012.8 |
| 20260505025700 | 57 | 80 | 2.0 | 3.0 | 0.00 | 0.00 | 0.00 | 78 | 1012.9 |
| 20260505025502 | 57 | 80 | 1.0 | 4.0 | 0.00 | 0.00 | 0.00 | 78 | 1012.9 |
| 20260505025400 | 57 | 184 | 1.0 | 4.0 | 0.00 | 0.00 | 0.00 | 78 | 1012.9 |
| 20260505025308 | 57 | 184 | 1.0 | 4.0 | 0.00 | 0.00 | 0.00 | 77 | 1012.9 |
| 20260505025200 | 57 | 184 | 1.0 | 4.0 | 0.00 | 0.00 | 0.00 | 77 | 1012.9 |
| 20260505025100 | 57 | 184 | 0.0 | 4.0 | 0.00 | 0.00 | 0.00 | 77 | 1012.9 |
| 20260505025003 | 57 | 184 | 0.0 | 4.0 | 0.00 | 0.00 | 0.00 | 76 | 1012.8 |
| 20260505024759 | 57 | 184 | 0.0 | 4.0 | 0.00 | 0.00 | 0.00 | 76 | 1012.9 |
| 20260505024702 | 57 | 184 | 2.0 | 4.0 | 0.00 | 0.00 | 0.00 | 76 | 1012.9 |
| 20260505024600 | 57 | 184 | 2.0 | 4.0 | 0.00 | 0.00 | 0.00 | 76 | 1012.9 |
| 20260505024402 | 57 | 217 | 3.0 | 4.0 | 0.00 | 0.00 | 0.00 | 77 | 1012.9 |
| 20260505024300 | 57 | 217 | 3.0 | 4.0 | 0.00 | 0.00 | 0.00 | 77 | 1012.9 |
| 20260505024201 | 57 | 217 | 3.0 | 4.0 | 0.00 | 0.00 | 0.00 | 77 | 1013.0 |
| 20260505024105 | 57 | 217 | 3.0 | 4.0 | 0.00 | 0.00 | 0.00 | 77 | 1013.0 |
| 20260505024000 | 57 | 217 | 4.0 | 4.0 | 0.00 | 0.00 | 0.00 | 77 | 1013.0 |
| 20260505023802 | 57 | 217 | 0.0 | 4.0 | 0.00 | 0.00 | 0.00 | 76 | 1012.9 |
| 20260505023659 | 57 | 217 | 0.0 | 4.0 | 0.00 | 0.00 | 0.00 | 77 | 1013.0 |
| 20260505023559 | 57 | 217 | 0.0 | 4.0 | 0.00 | 0.00 | 0.00 | 77 | 1012.9 |
| 20260505023502 | 57 | 217 | 1.0 | 4.0 | 0.00 | 0.00 | 0.00 | 77 | 1013.0 |
| 20260505023359 | 57 | 217 | 2.0 | 4.0 | 0.00 | 0.00 | 0.00 | 77 | 1012.9 |
| 20260505023259 | 57 | 217 | 1.0 | 4.0 | 0.00 | 0.00 | 0.00 | 77 | 1013.0 |
| 20260505023202 | 57 | 217 | 2.0 | 4.0 | 0.00 | 0.00 | 0.00 | 77 | 1013.0 |
| 20260505023100 | 57 | 217 | 3.0 | 4.0 | 0.00 | 0.00 | 0.00 | 77 | 1013.0 |
| 20260505023000 | 57 | 217 | 3.0 | 4.0 | 0.00 | 0.00 | 0.00 | 77 | 1013.0 |
| 20260505022902 | 57 | 217 | 3.0 | 4.0 | 0.00 | 0.00 | 0.00 | 77 | 1013.0 |
| 20260505022759 | 57 | 217 | 4.0 | 4.0 | 0.00 | 0.00 | 0.00 | 77 | 1013.0 |
| 20260505022700 | 57 | 192 | 2.0 | 4.0 | 0.00 | 0.00 | 0.00 | 77 | 1013.0 |
| 20260505022603 | 57 | 192 | 3.0 | 4.0 | 0.00 | 0.00 | 0.00 | 77 | 1013.0 |
| 20260505022501 | 57 | 192 | 3.0 | 4.0 | 0.00 | 0.00 | 0.00 | 77 | 1013.0 |
| 20260505022400 | 57 | 192 | 2.0 | 4.0 | 0.00 | 0.00 | 0.00 | 77 | 1013.0 |
| 20260505022308 | 57 | 192 | 3.0 | 4.0 | 0.00 | 0.00 | 0.00 | 77 | 1013.0 |
| 20260505022100 | 57 | 192 | 1.0 | 4.0 | 0.00 | 0.00 | 0.00 | 77 | 1013.0 |
| 20260505022011 | 57 | 192 | 4.0 | 4.0 | 0.00 | 0.00 | 0.00 | 77 | 1013.0 |
| 20260505021900 | 57 | 213 | 3.0 | 4.0 | 0.00 | 0.00 | 0.00 | 77 | 1013.1 |
| 20260505021800 | 57 | 186 | 2.0 | 4.0 | 0.00 | 0.00 | 0.00 | 76 | 1013.1 |
| 20260505021702 | 56 | 186 | 4.0 | 4.0 | 0.00 | 0.00 | 0.00 | 76 | 1013.1 |
| 20260505021600 | 56 | 186 | 4.0 | 4.0 | 0.00 | 0.00 | 0.00 | 76 | 1013.1 |
| 20260505021459 | 56 | 186 | 3.0 | 4.0 | 0.00 | 0.00 | 0.00 | 76 | 1013.1 |
| 20260505021300 | 56 | 186 | 1.0 | 3.0 | 0.00 | 0.00 | 0.00 | 76 | 1013.1 |
| 20260505021159 | 56 | 186 | 2.0 | 3.0 | 0.00 | 0.00 | 0.00 | 76 | 1013.1 |
| 20260505021103 | 56 | 186 | 2.0 | 3.0 | 0.00 | 0.00 | 0.00 | 76 | 1013.2 |
| 20260505021008 | 56 | 186 | 2.0 | 3.0 | 0.00 | 0.00 | 0.00 | 76 | 1013.2 |
| 20260505020901 | 56 | 186 | 2.0 | 3.0 | 0.00 | 0.00 | 0.00 | 76 | 1013.2 |
| 20260505020804 | 56 | 186 | 2.0 | 3.0 | 0.00 | 0.00 | 0.00 | 76 | 1013.2 |
| 20260505020702 | 56 | 186 | 2.0 | 3.0 | 0.00 | 0.00 | 0.00 | 76 | 1013.2 |
| 20260505020400 | 56 | 186 | 1.0 | 2.0 | 0.00 | 0.00 | 0.00 | 76 | 1013.2 |
| 20260505020208 | 56 | 186 | 1.0 | 2.0 | 0.00 | 0.00 | 0.00 | 77 | 1013.2 |
| 20260505020123 | 56 | 186 | 1.0 | 3.0 | 0.00 | 0.00 | 0.00 | 77 | 1013.1 |
| 20260505020008 | 56 | 186 | 0.0 | 3.0 | 0.00 | 0.00 | 0.00 | 77 | 1013.2 |
| 20260505015908 | 56 | 186 | 1.0 | 3.0 | 0.00 | 0.00 | 0.00 | 77 | 1013.2 |
| 20260505015800 | 56 | 186 | 1.0 | 3.0 | 0.00 | 0.00 | 0.00 | 77 | 1013.2 |
| 20260505015700 | 56 | 186 | 1.0 | 3.0 | 0.00 | 0.00 | 0.00 | 77 | 1013.2 |
| 20260505015603 | 56 | 186 | 0.0 | 3.0 | 0.00 | 0.00 | 0.00 | 77 | 1013.2 |
| 20260505015500 | 56 | 186 | 0.0 | 3.0 | 0.00 | 0.00 | 0.00 | 77 | 1013.3 |
| 20260505015402 | 56 | 186 | 1.0 | 3.0 | 0.00 | 0.00 | 0.00 | 77 | 1013.3 |
| 20260505015100 | 56 | 186 | 2.0 | 5.0 | 0.00 | 0.00 | 0.00 | 76 | 1013.3 |
| 20260505015010 | 56 | 186 | 2.0 | 5.0 | 0.00 | 0.00 | 0.00 | 76 | 1013.3 |
| 20260505014900 | 56 | 186 | 3.0 | 5.0 | 0.00 | 0.00 | 0.00 | 76 | 1013.3 |
| 20260505014559 | 56 | 186 | 1.0 | 5.0 | 0.00 | 0.00 | 0.00 | 77 | 1013.3 |
| 20260505014500 | 56 | 186 | 2.0 | 5.0 | 0.00 | 0.00 | 0.00 | 77 | 1013.3 |
| 20260505014402 | 56 | 186 | 1.0 | 5.0 | 0.00 | 0.00 | 0.00 | 77 | 1013.4 |
| 20260505014259 | 55 | 186 | 1.0 | 5.0 | 0.00 | 0.00 | 0.00 | 78 | 1013.3 |
| 20260505014159 | 55 | 191 | 2.0 | 5.0 | 0.00 | 0.00 | 0.00 | 78 | 1013.4 |
| 20260505014103 | 55 | 189 | 5.0 | 5.0 | 0.00 | 0.00 | 0.00 | 78 | 1013.3 |
| 20260505014005 | 55 | 148 | 1.0 | 5.0 | 0.00 | 0.00 | 0.00 | 78 | 1013.3 |
| 20260505013902 | 55 | 148 | 4.0 | 5.0 | 0.00 | 0.00 | 0.00 | 79 | 1013.3 |
| 20260505013804 | 55 | 148 | 4.0 | 4.0 | 0.00 | 0.00 | 0.00 | 79 | 1013.4 |
| 20260505013600 | 55 | 165 | 0.0 | 5.0 | 0.00 | 0.00 | 0.00 | 80 | 1013.4 |
| 20260505013504 | 55 | 165 | 1.0 | 5.0 | 0.00 | 0.00 | 0.00 | 80 | 1013.4 |
| 20260505013359 | 55 | 165 | 1.0 | 5.0 | 0.00 | 0.00 | 0.00 | 80 | 1013.4 |
| 20260505013300 | 55 | 165 | 1.0 | 5.0 | 0.00 | 0.00 | 0.00 | 81 | 1013.4 |
| 20260505013202 | 55 | 165 | 2.0 | 5.0 | 0.00 | 0.00 | 0.00 | 81 | 1013.4 |
| 20260505013100 | 55 | 165 | 2.0 | 5.0 | 0.00 | 0.00 | 0.00 | 81 | 1013.4 |
| 20260505013007 | 55 | 165 | 2.0 | 5.0 | 0.00 | 0.00 | 0.00 | 81 | 1013.4 |
| 20260505012902 | 55 | 172 | 3.0 | 5.0 | 0.00 | 0.00 | 0.00 | 82 | 1013.4 |
| 20260505012800 | 55 | 140 | 1.0 | 5.0 | 0.00 | 0.00 | 0.00 | 82 | 1013.3 |
| 20260505012500 | 55 | 194 | 2.0 | 3.0 | 0.00 | 0.00 | 0.00 | 82 | 1013.4 |
| 20260505012304 | 55 | 194 | 1.0 | 2.0 | 0.00 | 0.00 | 0.00 | 82 | 1013.4 |
| 20260505012159 | 55 | 194 | 2.0 | 3.0 | 0.00 | 0.00 | 0.00 | 81 | 1013.4 |
| 20260505012059 | 55 | 194 | 1.0 | 5.0 | 0.00 | 0.00 | 0.00 | 81 | 1013.4 |
| 20260505012007 | 55 | 194 | 2.0 | 5.0 | 0.00 | 0.00 | 0.00 | 81 | 1013.4 |
| 20260505011859 | 55 | 194 | 2.0 | 5.0 | 0.00 | 0.00 | 0.00 | 81 | 1013.4 |
| 20260505011759 | 55 | 194 | 1.0 | 5.0 | 0.00 | 0.00 | 0.00 | 81 | 1013.4 |
| 20260505011702 | 55 | 194 | 1.0 | 5.0 | 0.00 | 0.00 | 0.00 | 81 | 1013.4 |
| 20260505011601 | 55 | 194 | 1.0 | 5.0 | 0.00 | 0.00 | 0.00 | 80 | 1013.4 |
| 20260505011459 | 54 | 194 | 1.0 | 5.0 | 0.00 | 0.00 | 0.00 | 80 | 1013.4 |
| 20260505011402 | 54 | 194 | 1.0 | 5.0 | 0.00 | 0.00 | 0.00 | 80 | 1013.5 |
| 20260505011300 | 54 | 194 | 1.0 | 5.0 | 0.00 | 0.00 | 0.00 | 80 | 1013.5 |
| 20260505011159 | 54 | 194 | 2.0 | 5.0 | 0.00 | 0.00 | 0.00 | 80 | 1013.6 |
| 20260505011102 | 54 | 194 | 3.0 | 5.0 | 0.00 | 0.00 | 0.00 | 80 | 1013.5 |
| 20260505011006 | 54 | 194 | 3.0 | 5.0 | 0.00 | 0.00 | 0.00 | 80 | 1013.5 |
| 20260505010900 | 54 | 194 | 3.0 | 5.0 | 0.00 | 0.00 | 0.00 | 80 | 1013.5 |
| 20260505010805 | 54 | 194 | 3.0 | 5.0 | 0.00 | 0.00 | 0.00 | 80 | 1013.5 |
| 20260505010700 | 54 | 194 | 4.0 | 5.0 | 0.00 | 0.00 | 0.00 | 80 | 1013.6 |
| 20260505010359 | 54 | 194 | 3.0 | 5.0 | 0.00 | 0.00 | 0.00 | 80 | 1013.6 |
| 20260505010202 | 54 | 194 | 4.0 | 5.0 | 0.00 | 0.00 | 0.00 | 80 | 1013.7 |
| 20260505010059 | 54 | 194 | 4.0 | 4.0 | 0.00 | 0.00 | 0.00 | 80 | 1013.7 |
| 20260505010008 | 54 | 194 | 2.0 | 4.0 | 0.00 | 0.00 | 0.00 | 80 | 1013.7 |
| 20260505005902 | 54 | 194 | 3.0 | 4.0 | 0.00 | 0.00 | 0.00 | 80 | 1013.7 |
| 20260505005801 | 54 | 194 | 1.0 | 3.0 | 0.00 | 0.00 | 0.00 | 79 | 1013.8 |
| 20260505005701 | 54 | 194 | 2.0 | 3.0 | 0.00 | 0.00 | 0.00 | 79 | 1013.8 |
| 20260505005602 | 54 | 194 | 2.0 | 3.0 | 0.00 | 0.00 | 0.00 | 79 | 1013.8 |
| 20260505005459 | 54 | 194 | 2.0 | 5.0 | 0.00 | 0.00 | 0.00 | 79 | 1013.8 |
| 20260505005359 | 54 | 194 | 1.0 | 5.0 | 0.00 | 0.00 | 0.00 | 79 | 1013.8 |
| 20260505005303 | 54 | 194 | 2.0 | 5.0 | 0.00 | 0.00 | 0.00 | 79 | 1013.9 |
| 20260505005159 | 54 | 194 | 1.0 | 5.0 | 0.00 | 0.00 | 0.00 | 79 | 1013.9 |
| 20260505005005 | 54 | 194 | 2.0 | 5.0 | 0.00 | 0.00 | 0.00 | 79 | 1013.9 |
| 20260505004800 | 54 | 194 | 0.0 | 5.0 | 0.00 | 0.00 | 0.00 | 78 | 1014.0 |
| 20260505004707 | 54 | 194 | 0.0 | 5.0 | 0.00 | 0.00 | 0.00 | 78 | 1014.0 |
| 20260505004604 | 54 | 194 | 1.0 | 5.0 | 0.00 | 0.00 | 0.00 | 78 | 1014.0 |
| 20260505004501 | 55 | 194 | 4.0 | 5.0 | 0.00 | 0.00 | 0.00 | 78 | 1014.0 |
| 20260505004200 | 55 | 213 | 1.0 | 2.0 | 0.00 | 0.00 | 0.00 | 77 | 1014.0 |
| 20260505004004 | 55 | 213 | 1.0 | 2.0 | 0.00 | 0.00 | 0.00 | 76 | 1013.9 |
| 20260505003859 | 55 | 213 | 0.0 | 2.0 | 0.00 | 0.00 | 0.00 | 76 | 1014.0 |
| 20260505003804 | 55 | 213 | 1.0 | 3.0 | 0.00 | 0.00 | 0.00 | 76 | 1014.0 |
| 20260505003700 | 55 | 213 | 1.0 | 3.0 | 0.00 | 0.00 | 0.00 | 75 | 1014.0 |
| 20260505003602 | 55 | 213 | 1.0 | 3.0 | 0.00 | 0.00 | 0.00 | 75 | 1013.9 |
| 20260505003504 | 55 | 213 | 1.0 | 3.0 | 0.00 | 0.00 | 0.00 | 75 | 1013.9 |
| 20260505003400 | 55 | 213 | 1.0 | 3.0 | 0.00 | 0.00 | 0.00 | 75 | 1013.9 |
| 20260505003259 | 55 | 213 | 0.0 | 4.0 | 0.00 | 0.00 | 0.00 | 75 | 1014.0 |
| 20260505003100 | 55 | 213 | 2.0 | 4.0 | 0.00 | 0.00 | 0.00 | 75 | 1014.0 |
| 20260505003005 | 55 | 213 | 1.0 | 4.0 | 0.00 | 0.00 | 0.00 | 75 | 1014.0 |
| 20260505002902 | 55 | 213 | 2.0 | 4.0 | 0.00 | 0.00 | 0.00 | 74 | 1014.0 |
| 20260505002759 | 55 | 213 | 3.0 | 4.0 | 0.00 | 0.00 | 0.00 | 74 | 1014.0 |
| 20260505002659 | 55 | 213 | 3.0 | 4.0 | 0.00 | 0.00 | 0.00 | 74 | 1014.0 |
| 20260505002602 | 55 | 213 | 3.0 | 4.0 | 0.00 | 0.00 | 0.00 | 74 | 1014.0 |
| 20260505002501 | 56 | 213 | 2.0 | 4.0 | 0.00 | 0.00 | 0.00 | 74 | 1014.0 |
| 20260505002400 | 56 | 213 | 3.0 | 4.0 | 0.00 | 0.00 | 0.00 | 74 | 1014.1 |
| 20260505002303 | 56 | 213 | 4.0 | 4.0 | 0.00 | 0.00 | 0.00 | 74 | 1014.1 |
| 20260505002159 | 56 | 213 | 3.0 | 4.0 | 0.00 | 0.00 | 0.00 | 74 | 1014.1 |
| 20260505002100 | 56 | 202 | 4.0 | 4.0 | 0.00 | 0.00 | 0.00 | 74 | 1014.1 |
| 20260505002006 | 56 | 202 | 4.0 | 4.0 | 0.00 | 0.00 | 0.00 | 73 | 1014.1 |
| 20260505001859 | 56 | 208 | 3.0 | 4.0 | 0.00 | 0.00 | 0.00 | 73 | 1014.1 |
| 20260505001759 | 56 | 223 | 4.0 | 4.0 | 0.00 | 0.00 | 0.00 | 73 | 1014.2 |
| 20260505001702 | 56 | 223 | 3.0 | 4.0 | 0.00 | 0.00 | 0.00 | 73 | 1014.2 |
| 20260505001600 | 57 | 223 | 3.0 | 4.0 | 0.00 | 0.00 | 0.00 | 73 | 1014.2 |
| 20260505001259 | 57 | 196 | 0.0 | 2.0 | 0.00 | 0.00 | 0.00 | 72 | 1014.2 |
| 20260505001159 | 57 | 196 | 1.0 | 2.0 | 0.00 | 0.00 | 0.00 | 72 | 1014.3 |
| 20260505001103 | 57 | 196 | 1.0 | 2.0 | 0.00 | 0.00 | 0.00 | 71 | 1014.3 |
| 20260505000802 | 57 | 196 | 0.0 | 2.0 | 0.00 | 0.00 | 0.00 | 68 | 1014.3 |
| 20260505000559 | 57 | 196 | 1.0 | 2.0 | 0.00 | 0.00 | 0.00 | 69 | 1014.3 |
| 20260505000503 | 58 | 196 | 1.0 | 2.0 | 0.00 | 0.00 | 0.00 | 69 | 1014.4 |
| 20260505000359 | 58 | 196 | 1.0 | 2.0 | 0.00 | 0.00 | 0.00 | 69 | 1014.4 |
| 20260505000259 | 58 | 196 | 0.0 | 2.0 | 0.00 | 0.00 | 0.00 | 69 | 1014.4 |
| 20260505000200 | 58 | 196 | 2.0 | 2.0 | 0.00 | 0.00 | 0.00 | 69 | 1014.4 |
| 20260505000121 | 58 | 196 | 1.0 | 3.0 | 0.00 | 0.00 | 0.00 | 68 | 1014.4 |
| 20260505000008 | 58 | 196 | 2.0 | 3.0 | 0.00 | 0.00 | 0.00 | 68 | 1014.4 |
| 20260504235901 | 58 | 196 | 0.0 | 3.0 | 0.00 | 0.00 | 0.00 | 68 | 1014.4 |
| 20260504235804 | 58 | 196 | 0.0 | 4.0 | 0.00 | 0.00 | 0.00 | 68 | 1014.4 |
| 20260504235600 | 58 | 196 | 0.0 | 4.0 | 0.00 | 0.00 | 0.00 | 68 | 1014.4 |
| 20260504235504 | 58 | 196 | 0.0 | 4.0 | 0.00 | 0.00 | 0.00 | 68 | 1014.4 |
| 20260504235304 | 58 | 196 | 1.0 | 4.0 | 0.00 | 0.00 | 0.00 | 68 | 1014.4 |
| 20260504235202 | 58 | 196 | 1.0 | 4.0 | 0.00 | 0.00 | 0.00 | 68 | 1014.5 |
| 20260504235100 | 59 | 196 | 2.0 | 4.0 | 0.00 | 0.00 | 0.00 | 68 | 1014.4 |
| 20260504235002 | 59 | 196 | 1.0 | 4.0 | 0.00 | 0.00 | 0.00 | 68 | 1014.4 |
| 20260504234905 | 59 | 196 | 2.0 | 4.0 | 0.00 | 0.00 | 0.00 | 68 | 1014.5 |
| 20260504234800 | 59 | 196 | 3.0 | 4.0 | 0.00 | 0.00 | 0.00 | 68 | 1014.5 |
| 20260504234701 | 59 | 197 | 2.0 | 4.0 | 0.00 | 0.00 | 0.00 | 68 | 1014.5 |
| 20260504234501 | 59 | 190 | 2.0 | 4.0 | 0.00 | 0.00 | 0.00 | 68 | 1014.5 |
| 20260504234401 | 59 | 190 | 3.0 | 4.0 | 0.00 | 0.00 | 0.00 | 68 | 1014.6 |
| 20260504234305 | 59 | 74 | 2.0 | 3.0 | 0.00 | 0.00 | 0.00 | 67 | 1014.6 |
| 20260504234201 | 60 | 74 | 2.0 | 3.0 | 0.00 | 0.00 | 0.00 | 67 | 1014.6 |
| 20260504234100 | 60 | 74 | 2.0 | 2.0 | 0.00 | 0.00 | 0.00 | 66 | 1014.6 |
| 20260504234005 | 60 | 74 | 2.0 | 2.0 | 0.00 | 0.00 | 0.00 | 66 | 1014.6 |
| 20260504233901 | 60 | 74 | 1.0 | 2.0 | 0.00 | 0.00 | 0.00 | 66 | 1014.6 |
| 20260504233800 | 60 | 74 | 1.0 | 2.0 | 0.00 | 0.00 | 0.00 | 66 | 1014.6 |
| 20260504233702 | 60 | 74 | 1.0 | 3.0 | 0.00 | 0.00 | 0.00 | 66 | 1014.6 |
| 20260504233559 | 60 | 74 | 1.0 | 3.0 | 0.00 | 0.00 | 0.00 | 66 | 1014.6 |
| 20260504233500 | 60 | 74 | 1.0 | 3.0 | 0.00 | 0.00 | 0.00 | 66 | 1014.7 |
| 20260504233301 | 61 | 74 | 1.0 | 3.0 | 0.00 | 0.00 | 0.00 | 66 | 1014.6 |
| 20260504233200 | 61 | 74 | 1.0 | 3.0 | 0.00 | 0.00 | 0.00 | 66 | 1014.7 |
| 20260504233106 | 61 | 74 | 1.0 | 3.0 | 0.00 | 0.00 | 0.00 | 65 | 1014.7 |
| 20260504233001 | 61 | 74 | 1.0 | 3.0 | 0.00 | 0.00 | 0.00 | 65 | 1014.8 |
| 20260504232859 | 61 | 74 | 1.0 | 3.0 | 0.00 | 0.00 | 0.00 | 65 | 1014.8 |
| 20260504232802 | 61 | 74 | 1.0 | 3.0 | 0.00 | 0.00 | 0.00 | 65 | 1014.7 |
| 20260504232559 | 61 | 74 | 0.0 | 2.0 | 0.00 | 0.00 | 0.00 | 64 | 1014.7 |
| 20260504232502 | 61 | 74 | 0.0 | 2.0 | 0.00 | 0.00 | 0.00 | 63 | 1014.7 |
| 20260504232400 | 61 | 74 | 0.0 | 3.0 | 0.00 | 0.00 | 0.00 | 63 | 1014.7 |
| 20260504232259 | 62 | 74 | 0.0 | 3.0 | 0.00 | 0.00 | 0.00 | 63 | 1014.7 |
| 20260504232202 | 62 | 74 | 0.0 | 3.0 | 0.00 | 0.00 | 0.00 | 63 | 1014.6 |
| 20260504232059 | 62 | 74 | 0.0 | 3.0 | 0.00 | 0.00 | 0.00 | 62 | 1014.6 |
| 20260504231902 | 62 | 74 | 0.0 | 3.0 | 0.00 | 0.00 | 0.00 | 61 | 1014.7 |
| 20260504231759 | 62 | 74 | 0.0 | 3.0 | 0.00 | 0.00 | 0.00 | 61 | 1014.7 |
| 20260504231659 | 62 | 74 | 2.0 | 3.0 | 0.00 | 0.00 | 0.00 | 62 | 1014.6 |
| 20260504231602 | 62 | 74 | 2.0 | 3.0 | 0.00 | 0.00 | 0.00 | 62 | 1014.7 |
| 20260504231500 | 62 | 74 | 2.0 | 3.0 | 0.00 | 0.00 | 0.00 | 61 | 1014.7 |
| 20260504231159 | 62 | 128 | 2.0 | 4.0 | 0.00 | 0.00 | 0.00 | 60 | 1014.7 |
| 20260504231059 | 62 | 128 | 2.0 | 4.0 | 0.00 | 0.00 | 0.00 | 60 | 1014.7 |
| 20260504231003 | 62 | 128 | 3.0 | 4.0 | 0.00 | 0.00 | 0.00 | 59 | 1014.7 |
| 20260504230900 | 62 | 128 | 1.0 | 5.0 | 0.00 | 0.00 | 0.00 | 59 | 1014.7 |
| 20260504230759 | 62 | 128 | 2.0 | 5.0 | 0.00 | 0.00 | 0.00 | 59 | 1014.8 |
| 20260504230500 | 63 | 128 | 3.0 | 7.0 | 0.00 | 0.00 | 0.00 | 57 | 1014.8 |
| 20260504230402 | 63 | 175 | 2.0 | 7.0 | 0.00 | 0.00 | 0.00 | 58 | 1014.8 |
| 20260504230300 | 63 | 175 | 1.0 | 8.0 | 0.00 | 0.00 | 0.00 | 57 | 1014.8 |
| 20260504230200 | 63 | 175 | 2.0 | 8.0 | 0.00 | 0.00 | 0.00 | 58 | 1014.8 |
| 20260504230004 | 63 | 169 | 2.0 | 8.0 | 0.00 | 0.00 | 0.00 | 58 | 1014.8 |
| 20260504225859 | 63 | 179 | 4.0 | 9.0 | 0.00 | 0.00 | 0.00 | 58 | 1014.8 |
| 20260504225802 | 63 | 196 | 3.0 | 9.0 | 0.00 | 0.00 | 0.00 | 57 | 1014.8 |
| 20260504225659 | 63 | 189 | 5.0 | 9.0 | 0.00 | 0.00 | 0.00 | 57 | 1014.8 |
| 20260504225559 | 63 | 194 | 4.0 | 9.0 | 0.00 | 0.00 | 0.00 | 57 | 1014.8 |
| 20260504225502 | 63 | 214 | 6.0 | 9.0 | 0.00 | 0.00 | 0.00 | 57 | 1014.8 |
| 20260504225359 | 63 | 203 | 5.0 | 9.0 | 0.00 | 0.00 | 0.00 | 58 | 1014.8 |
| 20260504225259 | 63 | 184 | 8.0 | 10.0 | 0.00 | 0.00 | 0.00 | 58 | 1014.8 |
| 20260504225202 | 63 | 189 | 6.0 | 11.0 | 0.00 | 0.00 | 0.00 | 57 | 1014.8 |
| 20260504225100 | 63 | 184 | 7.0 | 11.0 | 0.00 | 0.00 | 0.00 | 58 | 1014.7 |
| 20260504225005 | 63 | 187 | 6.0 | 11.0 | 0.00 | 0.00 | 0.00 | 57 | 1014.7 |
| 20260504224903 | 62 | 189 | 6.0 | 11.0 | 0.00 | 0.00 | 0.00 | 57 | 1014.8 |
| 20260504224759 | 62 | 190 | 7.0 | 11.0 | 0.00 | 0.00 | 0.00 | 58 | 1014.8 |
| 20260504224700 | 62 | 191 | 7.0 | 11.0 | 0.00 | 0.00 | 0.00 | 58 | 1014.8 |
| 20260504224500 | 62 | 177 | 6.0 | 11.0 | 0.00 | 0.00 | 0.00 | 59 | 1014.9 |
| 20260504224359 | 61 | 198 | 6.0 | 11.0 | 0.00 | 0.00 | 0.00 | 60 | 1014.9 |
| 20260504224302 | 61 | 191 | 8.0 | 11.0 | 0.00 | 0.00 | 0.00 | 61 | 1014.9 |
| 20260504224200 | 61 | 184 | 9.0 | 11.0 | 0.00 | 0.00 | 0.00 | 61 | 1014.9 |
| 20260504224059 | 61 | 192 | 7.0 | 11.0 | 0.00 | 0.00 | 0.00 | 62 | 1014.9 |
| 20260504224003 | 60 | 213 | 7.0 | 11.0 | 0.00 | 0.00 | 0.00 | 63 | 1015.0 |
| 20260504223900 | 60 | 188 | 6.0 | 11.0 | 0.00 | 0.00 | 0.00 | 64 | 1015.0 |
| 20260504223759 | 60 | 192 | 6.0 | 11.0 | 0.00 | 0.00 | 0.00 | 66 | 1015.0 |
| 20260504223559 | 60 | 184 | 5.0 | 7.0 | 0.00 | 0.00 | 0.00 | 68 | 1015.0 |
| 20260504223459 | 60 | 205 | 5.0 | 7.0 | 0.00 | 0.00 | 0.00 | 68 | 1015.0 |
| 20260504223403 | 60 | 190 | 3.0 | 5.0 | 0.00 | 0.00 | 0.00 | 68 | 1015.0 |
| 20260504223159 | 60 | 209 | 1.0 | 2.0 | 0.00 | 0.00 | 0.00 | 67 | 1015.0 |
| 20260504223102 | 60 | 209 | 0.0 | 2.0 | 0.00 | 0.00 | 0.00 | 66 | 1015.1 |
| 20260504223001 | 60 | 209 | 1.0 | 2.0 | 0.00 | 0.00 | 0.00 | 65 | 1015.1 |
| 20260504222859 | 60 | 209 | 0.0 | 2.0 | 0.00 | 0.00 | 0.00 | 65 | 1015.0 |
| 20260504222802 | 60 | 209 | 0.0 | 2.0 | 0.00 | 0.00 | 0.00 | 66 | 1015.0 |
| 20260504222700 | 60 | 209 | 2.0 | 3.0 | 0.00 | 0.00 | 0.00 | 66 | 1015.0 |
| 20260504222601 | 60 | 209 | 1.0 | 3.0 | 0.00 | 0.00 | 0.00 | 66 | 1015.1 |
| 20260504222504 | 60 | 209 | 1.0 | 3.0 | 0.00 | 0.00 | 0.00 | 65 | 1015.1 |
| 20260504222404 | 60 | 209 | 1.0 | 3.0 | 0.00 | 0.00 | 0.00 | 66 | 1015.0 |
| 20260504222302 | 60 | 209 | 1.0 | 3.0 | 0.00 | 0.00 | 0.00 | 66 | 1015.1 |
| 20260504222206 | 60 | 209 | 1.0 | 3.0 | 0.00 | 0.00 | 0.00 | 66 | 1015.1 |
| 20260504222100 | 60 | 209 | 1.0 | 3.0 | 0.00 | 0.00 | 0.00 | 66 | 1015.0 |
| 20260504222000 | 60 | 209 | 1.0 | 3.0 | 0.00 | 0.00 | 0.00 | 66 | 1015.0 |
| 20260504221904 | 60 | 209 | 1.0 | 3.0 | 0.00 | 0.00 | 0.00 | 65 | 1015.0 |
| 20260504221802 | 60 | 209 | 2.0 | 3.0 | 0.00 | 0.00 | 0.00 | 65 | 1015.0 |
| 20260504221659 | 60 | 209 | 1.0 | 3.0 | 0.00 | 0.00 | 0.00 | 65 | 1015.0 |
| 20260504221459 | 60 | 209 | 1.0 | 3.0 | 0.00 | 0.00 | 0.00 | 65 | 1015.1 |
| 20260504221400 | 60 | 209 | 1.0 | 3.0 | 0.00 | 0.00 | 0.00 | 65 | 1015.2 |
| 20260504221302 | 60 | 209 | 2.0 | 3.0 | 0.00 | 0.00 | 0.00 | 65 | 1015.2 |
| 20260504221159 | 60 | 209 | 3.0 | 3.0 | 0.00 | 0.00 | 0.00 | 65 | 1015.2 |
| 20260504221059 | 60 | 209 | 2.0 | 3.0 | 0.00 | 0.00 | 0.00 | 66 | 1015.2 |
| 20260504221004 | 60 | 209 | 2.0 | 3.0 | 0.00 | 0.00 | 0.00 | 66 | 1015.2 |
| 20260504220900 | 60 | 209 | 2.0 | 4.0 | 0.00 | 0.00 | 0.00 | 66 | 1015.2 |
| 20260504220759 | 60 | 209 | 3.0 | 4.0 | 0.00 | 0.00 | 0.00 | 66 | 1015.1 |
| 20260504220703 | 60 | 209 | 1.0 | 4.0 | 0.00 | 0.00 | 0.00 | 65 | 1015.1 |
| 20260504220559 | 60 | 209 | 1.0 | 4.0 | 0.00 | 0.00 | 0.00 | 63 | 1015.2 |
| 20260504220459 | 60 | 209 | 1.0 | 4.0 | 0.00 | 0.00 | 0.00 | 62 | 1015.2 |
| 20260504220259 | 60 | 209 | 1.0 | 5.0 | 0.00 | 0.00 | 0.00 | 62 | 1015.1 |
| 20260504220159 | 60 | 209 | 2.0 | 5.0 | 0.00 | 0.00 | 0.00 | 62 | 1015.1 |
| 20260504220119 | 61 | 209 | 2.0 | 5.0 | 0.00 | 0.00 | 0.00 | 62 | 1015.1 |
| 20260504220009 | 61 | 209 | 3.0 | 5.0 | 0.00 | 0.00 | 0.00 | 62 | 1015.2 |
| 20260504215902 | 61 | 209 | 3.0 | 5.0 | 0.00 | 0.00 | 0.00 | 62 | 1015.2 |
| 20260504215802 | 61 | 209 | 3.0 | 6.0 | 0.00 | 0.00 | 0.00 | 61 | 1015.2 |
| 20260504215600 | 61 | 209 | 4.0 | 7.0 | 0.00 | 0.00 | 0.00 | 61 | 1015.1 |
| 20260504215403 | 61 | 209 | 4.0 | 7.0 | 0.00 | 0.00 | 0.00 | 62 | 1015.2 |
| 20260504215300 | 61 | 205 | 4.0 | 7.0 | 0.00 | 0.00 | 0.00 | 62 | 1015.2 |
| 20260504215200 | 61 | 205 | 4.0 | 7.0 | 0.00 | 0.00 | 0.00 | 62 | 1015.2 |
| 20260504215103 | 61 | 205 | 4.0 | 7.0 | 0.00 | 0.00 | 0.00 | 62 | 1015.2 |
| 20260504215001 | 61 | 205 | 5.0 | 7.0 | 0.00 | 0.00 | 0.00 | 62 | 1015.2 |
| 20260504214900 | 61 | 202 | 4.0 | 8.0 | 0.00 | 0.00 | 0.00 | 62 | 1015.2 |
| 20260504214803 | 61 | 206 | 6.0 | 8.0 | 0.00 | 0.00 | 0.00 | 61 | 1015.2 |
| 20260504214700 | 61 | 205 | 6.0 | 9.0 | 0.00 | 0.00 | 0.00 | 62 | 1015.2 |
| 20260504214503 | 61 | 212 | 6.0 | 9.0 | 0.00 | 0.00 | 0.00 | 62 | 1015.2 |
| 20260504214400 | 61 | 205 | 4.0 | 9.0 | 0.00 | 0.00 | 0.00 | 61 | 1015.2 |
| 20260504214203 | 61 | 205 | 6.0 | 9.0 | 0.00 | 0.00 | 0.00 | 61 | 1015.2 |
| 20260504214100 | 61 | 210 | 6.0 | 9.0 | 0.00 | 0.00 | 0.00 | 61 | 1015.2 |
| 20260504214001 | 61 | 202 | 6.0 | 9.0 | 0.00 | 0.00 | 0.00 | 61 | 1015.2 |
| 20260504213903 | 61 | 206 | 6.0 | 9.0 | 0.00 | 0.00 | 0.00 | 62 | 1015.2 |
| 20260504213603 | 61 | 220 | 10.0 | 10.0 | 0.00 | 0.00 | 0.00 | 62 | 1015.2 |
| 20260504213501 | 61 | 204 | 5.0 | 10.0 | 0.00 | 0.00 | 0.00 | 63 | 1015.2 |
| 20260504213400 | 61 | 202 | 8.0 | 10.0 | 0.00 | 0.00 | 0.00 | 63 | 1015.2 |
| 20260504213303 | 61 | 197 | 7.0 | 8.0 | 0.00 | 0.00 | 0.00 | 63 | 1015.2 |
| 20260504213201 | 60 | 190 | 7.0 | 8.0 | 0.00 | 0.00 | 0.00 | 63 | 1015.2 |
| 20260504213100 | 60 | 207 | 5.0 | 6.0 | 0.00 | 0.00 | 0.00 | 63 | 1015.2 |
| 20260504212900 | 60 | 159 | 4.0 | 10.0 | 0.00 | 0.00 | 0.00 | 64 | 1015.2 |
| 20260504212800 | 60 | 164 | 1.0 | 10.0 | 0.00 | 0.00 | 0.00 | 64 | 1015.2 |
| 20260504212300 | 60 | 161 | 1.0 | 14.0 | 0.00 | 0.00 | 0.00 | 66 | 1015.2 |
| 20260504212200 | 60 | 161 | 1.0 | 14.0 | 0.00 | 0.00 | 0.00 | 67 | 1015.2 |
| 20260504212103 | 59 | 207 | 4.0 | 14.0 | 0.00 | 0.00 | 0.00 | 67 | 1015.3 |
| 20260504212001 | 59 | 202 | 4.0 | 14.0 | 0.00 | 0.00 | 0.00 | 68 | 1015.2 |
| 20260504211900 | 59 | 196 | 7.0 | 14.0 | 0.00 | 0.00 | 0.00 | 69 | 1015.3 |
| 20260504211803 | 58 | 188 | 10.0 | 14.0 | 0.00 | 0.00 | 0.00 | 71 | 1015.3 |
| 20260504211700 | 59 | 182 | 5.0 | 8.0 | 0.00 | 0.00 | 0.00 | 72 | 1015.4 |
| 20260504211601 | 59 | 194 | 6.0 | 7.0 | 0.00 | 0.00 | 0.00 | 72 | 1015.3 |
| 20260504211504 | 59 | 188 | 6.0 | 7.0 | 0.00 | 0.00 | 0.00 | 72 | 1015.3 |
| 20260504211400 | 59 | 200 | 4.0 | 6.0 | 0.00 | 0.00 | 0.00 | 72 | 1015.3 |
| 20260504211300 | 59 | 180 | 4.0 | 6.0 | 0.00 | 0.00 | 0.00 | 72 | 1015.4 |
| 20260504211203 | 59 | 198 | 4.0 | 5.0 | 0.00 | 0.00 | 0.00 | 72 | 1015.4 |
| 20260504211100 | 59 | 166 | 2.0 | 5.0 | 0.00 | 0.00 | 0.00 | 72 | 1015.4 |
| 20260504211001 | 59 | 164 | 3.0 | 5.0 | 0.00 | 0.00 | 0.00 | 72 | 1015.4 |
| 20260504210903 | 59 | 168 | 1.0 | 5.0 | 0.00 | 0.00 | 0.00 | 72 | 1015.4 |
| 20260504210701 | 59 | 190 | 4.0 | 7.0 | 0.00 | 0.00 | 0.00 | 71 | 1015.4 |
| 20260504210605 | 59 | 185 | 2.0 | 7.0 | 0.00 | 0.00 | 0.00 | 71 | 1015.4 |
| 20260504210405 | 59 | 227 | 2.0 | 7.0 | 0.00 | 0.00 | 0.00 | 71 | 1015.4 |
| 20260504210305 | 60 | 106 | 0.0 | 7.0 | 0.00 | 0.00 | 0.00 | 72 | 1015.4 |
| 20260504210202 | 60 | 106 | 1.0 | 7.0 | 0.00 | 0.00 | 0.00 | 71 | 1015.3 |
| 20260504205802 | 60 | 108 | 5.0 | 5.0 | 0.00 | 0.00 | 0.00 | 71 | 1015.4 |
| 20260504205706 | 60 | 118 | 5.0 | 5.0 | 0.00 | 0.00 | 0.00 | 70 | 1015.4 |
| 20260504205601 | 60 | 46 | 2.0 | 4.0 | 0.00 | 0.00 | 0.00 | 70 | 1015.3 |
| 20260504205501 | 60 | 46 | 0.0 | 4.0 | 0.00 | 0.00 | 0.00 | 70 | 1015.4 |
| 20260504205403 | 60 | 46 | 1.0 | 4.0 | 0.00 | 0.00 | 0.00 | 70 | 1015.4 |
| 20260504205300 | 60 | 46 | 3.0 | 4.0 | 0.00 | 0.00 | 0.00 | 70 | 1015.4 |
| 20260504205103 | 60 | 71 | 2.0 | 3.0 | 0.00 | 0.00 | 0.00 | 71 | 1015.4 |
| 20260504205002 | 60 | 71 | 2.0 | 3.0 | 0.00 | 0.00 | 0.00 | 72 | 1015.4 |
| 20260504204902 | 60 | 71 | 2.0 | 3.0 | 0.00 | 0.00 | 0.00 | 72 | 1015.4 |
| 20260504204804 | 60 | 71 | 1.0 | 3.0 | 0.00 | 0.00 | 0.00 | 72 | 1015.4 |
| 20260504204700 | 60 | 71 | 1.0 | 3.0 | 0.00 | 0.00 | 0.00 | 72 | 1015.4 |
| 20260504204504 | 60 | 71 | 3.0 | 3.0 | 0.00 | 0.00 | 0.00 | 72 | 1015.3 |
| 20260504204401 | 60 | 71 | 3.0 | 3.0 | 0.00 | 0.00 | 0.00 | 72 | 1015.4 |
| 20260504204301 | 60 | 71 | 2.0 | 3.0 | 0.00 | 0.00 | 0.00 | 72 | 1015.3 |
| 20260504204203 | 60 | 71 | 3.0 | 3.0 | 0.00 | 0.00 | 0.00 | 72 | 1015.3 |
| 20260504204100 | 60 | 71 | 2.0 | 2.0 | 0.00 | 0.00 | 0.00 | 72 | 1015.3 |
| 20260504204001 | 60 | 71 | 2.0 | 2.0 | 0.00 | 0.00 | 0.00 | 72 | 1015.3 |
| 20260504203502 | 60 | 71 | 1.0 | 3.0 | 0.00 | 0.00 | 0.00 | 74 | 1015.2 |
| 20260504203401 | 60 | 71 | 2.0 | 3.0 | 0.00 | 0.00 | 0.00 | 74 | 1015.2 |
| 20260504203303 | 60 | 71 | 1.0 | 3.0 | 0.00 | 0.00 | 0.00 | 74 | 1015.2 |
| 20260504203200 | 60 | 71 | 1.0 | 3.0 | 0.00 | 0.00 | 0.00 | 74 | 1015.2 |
| 20260504203006 | 60 | 71 | 0.0 | 3.0 | 0.00 | 0.00 | 0.00 | 74 | 1015.2 |
| 20260504202901 | 60 | 71 | 1.0 | 4.0 | 0.00 | 0.00 | 0.00 | 74 | 1015.2 |
| 20260504202704 | 60 | 71 | 2.0 | 4.0 | 0.00 | 0.00 | 0.00 | 74 | 1015.2 |
| 20260504202602 | 60 | 71 | 2.0 | 4.0 | 0.00 | 0.00 | 0.00 | 74 | 1015.2 |
| 20260504202405 | 61 | 71 | 1.0 | 4.0 | 0.00 | 0.00 | 0.00 | 74 | 1015.2 |
| 20260504202300 | 61 | 71 | 2.0 | 4.0 | 0.00 | 0.00 | 0.00 | 73 | 1015.1 |
| 20260504202205 | 60 | 71 | 2.0 | 4.0 | 0.00 | 0.00 | 0.00 | 73 | 1015.1 |
| 20260504202005 | 60 | 71 | 2.0 | 6.0 | 0.00 | 0.00 | 0.00 | 72 | 1015.1 |
| 20260504201701 | 60 | 207 | 2.0 | 6.0 | 0.00 | 0.00 | 0.00 | 71 | 1015.1 |
| 20260504201606 | 60 | 207 | 1.0 | 6.0 | 0.00 | 0.00 | 0.00 | 71 | 1015.1 |
| 20260504201506 | 60 | 207 | 4.0 | 6.0 | 0.00 | 0.00 | 0.00 | 71 | 1015.0 |
| 20260504201401 | 60 | 203 | 2.0 | 6.0 | 0.00 | 0.00 | 0.00 | 71 | 1015.1 |
| 20260504201300 | 60 | 216 | 1.0 | 6.0 | 0.00 | 0.00 | 0.00 | 71 | 1015.0 |
| 20260504201205 | 60 | 199 | 2.0 | 6.0 | 0.00 | 0.00 | 0.00 | 72 | 1015.0 |
| 20260504201003 | 60 | 221 | 3.0 | 6.0 | 0.00 | 0.00 | 0.00 | 73 | 1015.0 |
| 20260504200913 | 60 | 219 | 4.0 | 6.0 | 0.00 | 0.00 | 0.00 | 73 | 1015.0 |
| 20260504200803 | 60 | 219 | 4.0 | 6.0 | 0.00 | 0.00 | 0.00 | 74 | 1015.0 |
| 20260504200703 | 60 | 211 | 5.0 | 7.0 | 0.00 | 0.00 | 0.00 | 74 | 1015.0 |
| 20260504200608 | 60 | 206 | 4.0 | 7.0 | 0.00 | 0.00 | 0.00 | 74 | 1015.0 |
| 20260504200401 | 60 | 200 | 4.0 | 7.0 | 0.00 | 0.00 | 0.00 | 75 | 1014.9 |
| 20260504200303 | 60 | 196 | 4.0 | 7.0 | 0.00 | 0.00 | 0.00 | 75 | 1014.9 |
| 20260504200205 | 60 | 197 | 4.0 | 7.0 | 0.00 | 0.00 | 0.00 | 76 | 1014.9 |
| 20260504200141 | 60 | 194 | 4.0 | 7.0 | 0.00 | 0.00 | 0.00 | 76 | 1014.8 |
| 20260504195905 | 60 | 194 | 4.0 | 7.0 | 0.00 | 0.00 | 0.00 | 77 | 1014.9 |
| 20260504195801 | 60 | 191 | 6.0 | 7.0 | 0.00 | 0.00 | 0.00 | 78 | 1014.8 |
| 20260504195707 | 60 | 199 | 6.0 | 7.0 | 0.00 | 0.00 | 0.00 | 78 | 1014.8 |
| 20260504195604 | 60 | 201 | 6.0 | 7.0 | 0.00 | 0.00 | 0.00 | 78 | 1014.9 |
| 20260504195505 | 60 | 200 | 7.0 | 7.0 | 0.00 | 0.00 | 0.00 | 79 | 1014.9 |
| 20260504195404 | 60 | 188 | 5.0 | 7.0 | 0.00 | 0.00 | 0.00 | 79 | 1014.9 |
| 20260504195219 | 60 | 184 | 5.0 | 7.0 | 0.00 | 0.00 | 0.00 | 80 | 1014.9 |
| 20260504195111 | 60 | 188 | 6.0 | 7.0 | 0.00 | 0.00 | 0.00 | 80 | 1014.9 |
| 20260504195030 | 60 | 181 | 6.0 | 7.0 | 0.00 | 0.00 | 0.00 | 80 | 1014.9 |
| 20260504194942 | 60 | 177 | 5.0 | 7.0 | 0.00 | 0.00 | 0.00 | 80 | 1014.9 |
| 20260504194817 | 60 | 186 | 5.0 | 7.0 | 0.00 | 0.00 | 0.00 | 80 | 1014.9 |
| 20260504194710 | 60 | 190 | 5.0 | 7.0 | 0.00 | 0.00 | 0.00 | 80 | 1014.8 |
| 20260504194622 | 60 | 175 | 4.0 | 7.0 | 0.00 | 0.00 | 0.00 | 80 | 1014.8 |
| 20260504194540 | 60 | 173 | 3.0 | 7.0 | 0.00 | 0.00 | 0.00 | 80 | 1014.8 |
| 20260504194414 | 60 | 189 | 6.0 | 7.0 | 0.00 | 0.00 | 0.00 | 80 | 1014.8 |
| 20260504194311 | 60 | 189 | 5.0 | 7.0 | 0.00 | 0.00 | 0.00 | 80 | 1014.8 |
| 20260504194230 | 60 | 189 | 6.0 | 7.0 | 0.00 | 0.00 | 0.00 | 80 | 1014.8 |
| 20260504194027 | 61 | 184 | 4.0 | 6.0 | 0.00 | 0.00 | 0.00 | 79 | 1014.7 |
| 20260504193822 | 61 | 192 | 5.0 | 6.0 | 0.00 | 0.00 | 0.00 | 78 | 1014.7 |
| 20260504193617 | 61 | 186 | 4.0 | 5.0 | 0.00 | 0.00 | 0.00 | 78 | 1014.8 |
| 20260504193523 | 61 | 129 | 4.0 | 5.0 | 0.00 | 0.00 | 0.00 | 78 | 1014.8 |
| 20260504193419 | 61 | 129 | 1.0 | 4.0 | 0.00 | 0.00 | 0.00 | 78 | 1014.7 |
| 20260504193333 | 61 | 129 | 2.0 | 4.0 | 0.00 | 0.00 | 0.00 | 78 | 1014.7 |
| 20260504193219 | 62 | 129 | 3.0 | 4.0 | 0.00 | 0.00 | 0.00 | 78 | 1014.8 |
| 20260504192824 | 62 | 129 | 3.0 | 4.0 | 0.00 | 0.00 | 0.00 | 77 | 1014.7 |
| 20260504192705 | 62 | 129 | 2.0 | 4.0 | 0.00 | 0.00 | 0.00 | 77 | 1014.7 |
| 20260504192602 | 62 | 129 | 2.0 | 4.0 | 0.00 | 0.00 | 0.00 | 77 | 1014.8 |
| 20260504192505 | 62 | 129 | 1.0 | 4.0 | 0.00 | 0.00 | 0.00 | 77 | 1014.7 |
| 20260504192408 | 63 | 129 | 1.0 | 4.0 | 0.00 | 0.00 | 0.00 | 77 | 1014.7 |
| 20260504192304 | 63 | 129 | 1.0 | 4.0 | 0.00 | 0.00 | 0.00 | 77 | 1014.7 |
| 20260504192122 | 63 | 129 | 1.0 | 4.0 | 0.00 | 0.00 | 0.00 | 77 | 1014.7 |
| 20260504192005 | 63 | 129 | 3.0 | 4.0 | 0.00 | 0.00 | 0.00 | 77 | 1014.6 |
| 20260504191804 | 63 | 129 | 1.0 | 4.0 | 0.00 | 0.00 | 0.00 | 76 | 1014.6 |
| 20260504191744 | 63 | 129 | 1.0 | 4.0 | 0.00 | 0.00 | 0.00 | 76 | 1014.6 |
| 20260504191622 | 63 | 129 | 1.0 | 4.0 | 0.00 | 0.00 | 0.00 | 76 | 1014.6 |
| 20260504191506 | 63 | 129 | 1.0 | 4.0 | 0.00 | 0.00 | 0.00 | 76 | 1014.5 |
| 20260504191438 | 63 | 129 | 1.0 | 4.0 | 0.00 | 0.00 | 0.00 | 76 | 1014.5 |
| 20260504191329 | 63 | 129 | 1.0 | 4.0 | 0.00 | 0.00 | 0.00 | 76 | 1014.6 |
| 20260504191211 | 63 | 129 | 3.0 | 4.0 | 0.00 | 0.00 | 0.00 | 76 | 1014.6 |
| 20260504191004 | 63 | 129 | 1.0 | 3.0 | 0.00 | 0.00 | 0.00 | 75 | 1014.6 |
| 20260504190933 | 63 | 129 | 2.0 | 3.0 | 0.00 | 0.00 | 0.00 | 75 | 1014.6 |
| 20260504190815 | 64 | 129 | 1.0 | 2.0 | 0.00 | 0.00 | 0.00 | 75 | 1014.6 |
| 20260504190723 | 64 | 129 | 0.0 | 3.0 | 0.00 | 0.00 | 0.00 | 75 | 1014.6 |
| 20260504190601 | 64 | 129 | 2.0 | 3.0 | 0.00 | 0.00 | 0.00 | 75 | 1014.6 |
| 20260504190509 | 64 | 129 | 1.0 | 3.0 | 0.00 | 0.00 | 0.00 | 75 | 1014.6 |
| 20260504190301 | 64 | 129 | 1.0 | 3.0 | 0.00 | 0.00 | 0.00 | 76 | 1014.5 |
| 20260504190005 | 64 | 129 | 1.0 | 4.0 | 0.00 | 0.00 | 0.00 | 76 | 1014.6 |
| 20260504185907 | 64 | 129 | 1.0 | 4.0 | 0.00 | 0.00 | 0.00 | 76 | 1014.6 |
| 20260504185804 | 64 | 129 | 1.0 | 4.0 | 0.00 | 0.00 | 0.00 | 76 | 1014.6 |
| 20260504185700 | 64 | 129 | 1.0 | 4.0 | 0.00 | 0.00 | 0.00 | 76 | 1014.5 |
| 20260504185504 | 64 | 129 | 0.0 | 4.0 | 0.00 | 0.00 | 0.00 | 75 | 1014.5 |
| 20260504185408 | 64 | 129 | 2.0 | 4.0 | 0.00 | 0.00 | 0.00 | 75 | 1014.5 |
| 20260504185306 | 64 | 129 | 3.0 | 4.0 | 0.00 | 0.00 | 0.00 | 75 | 1014.5 |
| 20260504185202 | 65 | 129 | 4.0 | 4.0 | 0.00 | 0.00 | 0.00 | 75 | 1014.5 |
| 20260504185101 | 65 | 94 | 3.0 | 5.0 | 0.00 | 0.00 | 0.00 | 74 | 1014.5 |
| 20260504184901 | 65 | 94 | 2.0 | 5.0 | 0.00 | 0.00 | 0.00 | 74 | 1014.5 |
| 20260504184808 | 65 | 94 | 3.0 | 5.0 | 0.00 | 0.00 | 0.00 | 74 | 1014.5 |
| 20260504184707 | 65 | 94 | 2.0 | 5.0 | 0.00 | 0.00 | 0.00 | 74 | 1014.5 |
| 20260504184601 | 65 | 94 | 2.0 | 5.0 | 0.00 | 0.00 | 0.00 | 73 | 1014.5 |
| 20260504184501 | 65 | 94 | 2.0 | 5.0 | 0.00 | 0.00 | 0.00 | 73 | 1014.5 |
| 20260504184407 | 65 | 94 | 2.0 | 5.0 | 0.00 | 0.00 | 0.00 | 73 | 1014.5 |
| 20260504184301 | 65 | 94 | 3.0 | 5.0 | 0.00 | 0.00 | 0.00 | 73 | 1014.5 |
| 20260504184206 | 65 | 94 | 2.0 | 5.0 | 0.00 | 0.00 | 0.00 | 73 | 1014.5 |
| 20260504184103 | 65 | 94 | 2.0 | 5.0 | 0.00 | 0.00 | 0.00 | 73 | 1014.4 |
| 20260504184002 | 65 | 94 | 3.0 | 5.0 | 0.00 | 0.00 | 0.00 | 73 | 1014.4 |
| 20260504183901 | 65 | 94 | 2.0 | 3.0 | 0.00 | 0.00 | 0.00 | 73 | 1014.5 |
| 20260504183806 | 66 | 94 | 2.0 | 3.0 | 0.00 | 0.00 | 0.00 | 73 | 1014.5 |
| 20260504183704 | 66 | 94 | 2.0 | 3.0 | 0.00 | 0.00 | 0.00 | 72 | 1014.5 |
| 20260504183603 | 66 | 94 | 3.0 | 3.0 | 0.00 | 0.00 | 0.00 | 72 | 1014.5 |
| 20260504183507 | 66 | 94 | 2.0 | 3.0 | 0.00 | 0.00 | 0.00 | 72 | 1014.5 |
| 20260504183407 | 66 | 94 | 2.0 | 3.0 | 0.00 | 0.00 | 0.00 | 72 | 1014.5 |
| 20260504183301 | 66 | 94 | 3.0 | 3.0 | 0.00 | 0.00 | 0.00 | 71 | 1014.5 |
| 20260504183204 | 66 | 94 | 1.0 | 3.0 | 0.00 | 0.00 | 0.00 | 71 | 1014.5 |
| 20260504183002 | 66 | 94 | 1.0 | 2.0 | 0.00 | 0.00 | 0.00 | 70 | 1014.5 |
| 20260504182903 | 66 | 94 | 2.0 | 2.0 | 0.00 | 0.00 | 0.00 | 70 | 1014.5 |
| 20260504182800 | 67 | 94 | 2.0 | 2.0 | 0.00 | 0.00 | 0.00 | 70 | 1014.5 |
| 20260504182604 | 67 | 94 | 2.0 | 2.0 | 0.00 | 0.00 | 0.00 | 70 | 1014.5 |
| 20260504182401 | 67 | 94 | 1.0 | 3.0 | 0.00 | 0.00 | 0.00 | 70 | 1014.6 |
| 20260504182304 | 67 | 94 | 1.0 | 3.0 | 0.00 | 0.00 | 0.00 | 69 | 1014.5 |
| 20260504182201 | 67 | 94 | 1.0 | 3.0 | 0.00 | 0.00 | 0.00 | 69 | 1014.5 |
| 20260504182100 | 67 | 94 | 1.0 | 3.0 | 0.00 | 0.00 | 0.00 | 69 | 1014.5 |
| 20260504182004 | 67 | 94 | 1.0 | 5.0 | 0.00 | 0.00 | 0.00 | 69 | 1014.5 |
| 20260504181900 | 67 | 94 | 1.0 | 5.0 | 0.00 | 0.00 | 0.00 | 69 | 1014.5 |
| 20260504181801 | 67 | 94 | 1.0 | 5.0 | 0.00 | 0.00 | 0.00 | 69 | 1014.5 |
| 20260504181704 | 67 | 94 | 2.0 | 5.0 | 0.00 | 0.00 | 0.00 | 69 | 1014.5 |
| 20260504181600 | 68 | 94 | 1.0 | 5.0 | 0.00 | 0.00 | 0.00 | 68 | 1014.5 |
| 20260504181403 | 68 | 94 | 2.0 | 5.0 | 0.00 | 0.00 | 0.00 | 68 | 1014.4 |
| 20260504181301 | 68 | 94 | 3.0 | 5.0 | 0.00 | 0.00 | 0.00 | 68 | 1014.4 |
| 20260504181200 | 68 | 94 | 2.0 | 5.0 | 0.00 | 0.00 | 0.00 | 68 | 1014.4 |
| 20260504181002 | 68 | 94 | 3.0 | 5.0 | 0.00 | 0.00 | 0.00 | 68 | 1014.4 |
| 20260504180901 | 68 | 94 | 5.0 | 5.0 | 0.00 | 0.00 | 0.00 | 68 | 1014.4 |
| 20260504180803 | 68 | 94 | 2.0 | 5.0 | 0.00 | 0.00 | 0.00 | 68 | 1014.5 |
| 20260504180601 | 68 | 94 | 3.0 | 5.0 | 0.00 | 0.00 | 0.00 | 67 | 1014.4 |
| 20260504180505 | 68 | 94 | 3.0 | 5.0 | 0.00 | 0.00 | 0.00 | 67 | 1014.4 |
| 20260504180402 | 68 | 94 | 3.0 | 3.0 | 0.00 | 0.00 | 0.00 | 67 | 1014.4 |
| 20260504180115 | 68 | 108 | 2.0 | 3.0 | 0.00 | 0.00 | 0.00 | 66 | 1014.4 |
| 20260504180005 | 68 | 108 | 2.0 | 3.0 | 0.00 | 0.00 | 0.00 | 66 | 1014.4 |
| 20260504175903 | 68 | 108 | 1.0 | 4.0 | 0.00 | 0.00 | 0.00 | 66 | 1014.4 |
| 20260504175800 | 68 | 108 | 2.0 | 4.0 | 0.00 | 0.00 | 0.00 | 66 | 1014.5 |
| 20260504175700 | 68 | 108 | 2.0 | 4.0 | 0.00 | 0.00 | 0.00 | 66 | 1014.4 |
| 20260504175606 | 68 | 108 | 2.0 | 4.0 | 0.00 | 0.00 | 0.00 | 66 | 1014.4 |
| 20260504175401 | 68 | 108 | 1.0 | 4.0 | 0.00 | 0.00 | 0.00 | 66 | 1014.4 |
| 20260504175304 | 68 | 108 | 2.0 | 4.0 | 0.00 | 0.00 | 0.00 | 66 | 1014.4 |
| 20260504175200 | 68 | 108 | 2.0 | 4.0 | 0.00 | 0.00 | 0.00 | 66 | 1014.4 |
| 20260504175100 | 68 | 108 | 2.0 | 4.0 | 0.00 | 0.00 | 0.00 | 66 | 1014.4 |
| 20260504175006 | 68 | 108 | 1.0 | 4.0 | 0.00 | 0.00 | 0.00 | 66 | 1014.4 |
| 20260504174901 | 68 | 108 | 3.0 | 4.0 | 0.00 | 0.00 | 0.00 | 66 | 1014.4 |
| 20260504174801 | 68 | 108 | 3.0 | 4.0 | 0.00 | 0.00 | 0.00 | 66 | 1014.4 |
| 20260504174601 | 68 | 108 | 3.0 | 4.0 | 0.00 | 0.00 | 0.00 | 66 | 1014.4 |
| 20260504174501 | 68 | 108 | 3.0 | 5.0 | 0.00 | 0.00 | 0.00 | 66 | 1014.4 |
| 20260504174403 | 68 | 108 | 4.0 | 5.0 | 0.00 | 0.00 | 0.00 | 66 | 1014.4 |
| 20260504174300 | 68 | 108 | 4.0 | 5.0 | 0.00 | 0.00 | 0.00 | 65 | 1014.3 |
| 20260504174200 | 68 | 108 | 3.0 | 5.0 | 0.00 | 0.00 | 0.00 | 65 | 1014.3 |
| 20260504174104 | 68 | 108 | 4.0 | 5.0 | 0.00 | 0.00 | 0.00 | 66 | 1014.4 |
| 20260504174003 | 69 | 108 | 1.0 | 5.0 | 0.00 | 0.00 | 0.00 | 66 | 1014.4 |
| 20260504173901 | 69 | 110 | 3.0 | 5.0 | 0.00 | 0.00 | 0.00 | 66 | 1014.4 |
| 20260504173803 | 69 | 98 | 2.0 | 5.0 | 0.00 | 0.00 | 0.00 | 66 | 1014.4 |
| 20260504173701 | 69 | 107 | 3.0 | 7.0 | 0.00 | 0.00 | 0.00 | 66 | 1014.4 |
| 20260504173600 | 69 | 112 | 4.0 | 7.0 | 0.00 | 0.00 | 0.00 | 66 | 1014.4 |
| 20260504173504 | 69 | 112 | 5.0 | 7.0 | 0.00 | 0.00 | 0.00 | 66 | 1014.4 |
| 20260504173301 | 69 | 103 | 3.0 | 7.0 | 0.00 | 0.00 | 0.00 | 65 | 1014.4 |
| 20260504173203 | 69 | 110 | 4.0 | 7.0 | 0.00 | 0.00 | 0.00 | 65 | 1014.4 |
| 20260504173100 | 69 | 110 | 3.0 | 7.0 | 0.00 | 0.00 | 0.00 | 65 | 1014.4 |
| 20260504173004 | 69 | 92 | 2.0 | 7.0 | 0.00 | 0.00 | 0.00 | 64 | 1014.4 |
| 20260504172903 | 69 | 93 | 5.0 | 7.0 | 0.00 | 0.00 | 0.00 | 64 | 1014.4 |
| 20260504172659 | 69 | 94 | 7.0 | 7.0 | 0.00 | 0.00 | 0.00 | 64 | 1014.4 |
| 20260504172501 | 69 | 84 | 3.0 | 7.0 | 0.00 | 0.00 | 0.00 | 64 | 1014.4 |
| 20260504172401 | 69 | 79 | 5.0 | 7.0 | 0.00 | 0.00 | 0.00 | 64 | 1014.4 |
| 20260504172304 | 69 | 79 | 3.0 | 7.0 | 0.00 | 0.00 | 0.00 | 63 | 1014.4 |
| 20260504172201 | 69 | 85 | 3.0 | 7.0 | 0.00 | 0.00 | 0.00 | 63 | 1014.4 |
| 20260504172100 | 69 | 76 | 4.0 | 7.0 | 0.00 | 0.00 | 0.00 | 63 | 1014.4 |
| 20260504172006 | 69 | 90 | 5.0 | 7.0 | 0.00 | 0.00 | 0.00 | 63 | 1014.4 |
| 20260504171901 | 69 | 86 | 5.0 | 8.0 | 0.00 | 0.00 | 0.00 | 64 | 1014.4 |
| 20260504171800 | 69 | 78 | 4.0 | 8.0 | 0.00 | 0.00 | 0.00 | 64 | 1014.4 |
| 20260504171703 | 69 | 93 | 5.0 | 8.0 | 0.00 | 0.00 | 0.00 | 63 | 1014.5 |
| 20260504171502 | 69 | 82 | 5.0 | 8.0 | 0.00 | 0.00 | 0.00 | 63 | 1014.5 |
| 20260504171402 | 69 | 96 | 6.0 | 8.0 | 0.00 | 0.00 | 0.00 | 63 | 1014.4 |
| 20260504171202 | 69 | 86 | 3.0 | 8.0 | 0.00 | 0.00 | 0.00 | 62 | 1014.5 |
| 20260504171104 | 69 | 85 | 6.0 | 8.0 | 0.00 | 0.00 | 0.00 | 63 | 1014.5 |
| 20260504171002 | 69 | 84 | 6.0 | 8.0 | 0.00 | 0.00 | 0.00 | 62 | 1014.5 |
| 20260504170901 | 69 | 81 | 7.0 | 8.0 | 0.00 | 0.00 | 0.00 | 62 | 1014.5 |
| 20260504170803 | 69 | 97 | 5.0 | 8.0 | 0.00 | 0.00 | 0.00 | 62 | 1014.5 |
| 20260504170701 | 69 | 97 | 5.0 | 9.0 | 0.00 | 0.00 | 0.00 | 62 | 1014.5 |
| 20260504170600 | 69 | 97 | 5.0 | 9.0 | 0.00 | 0.00 | 0.00 | 62 | 1014.4 |
| 20260504170509 | 69 | 97 | 5.0 | 9.0 | 0.00 | 0.00 | 0.00 | 61 | 1014.4 |
| 20260504170401 | 69 | 87 | 6.0 | 9.0 | 0.00 | 0.00 | 0.00 | 61 | 1014.5 |
| 20260504170302 | 69 | 80 | 6.0 | 9.0 | 0.00 | 0.00 | 0.00 | 61 | 1014.5 |
| 20260504170204 | 69 | 92 | 5.0 | 9.0 | 0.00 | 0.00 | 0.00 | 61 | 1014.5 |
| 20260504160359 | 70 | 111 | 8.0 | 13.0 | 0.00 | 0.00 | 0.00 | 52 | 1014.6 |
| 20260504160301 | 70 | 122 | 5.0 | 13.0 | 0.00 | 0.00 | 0.00 | 53 | 1014.7 |
| 20260504160203 | 70 | 92 | 7.0 | 13.0 | 0.00 | 0.00 | 0.00 | 53 | 1014.6 |
| 20260504160123 | 70 | 88 | 10.0 | 14.0 | 0.00 | 0.00 | 0.00 | 53 | 1014.7 |
| 20260504151104 | 74 | 126 | 4.0 | 16.0 | 0.00 | 0.00 | 0.00 | 47 | 1014.7 |
| 20260504151001 | 74 | 100 | 10.0 | 16.0 | 0.00 | 0.00 | 0.00 | 47 | 1014.7 |
| 20260504150902 | 74 | 105 | 10.0 | 16.0 | 0.00 | 0.00 | 0.00 | 49 | 1014.7 |
| 20260504150803 | 74 | 119 | 8.0 | 16.0 | 0.00 | 0.00 | 0.00 | 48 | 1014.6 |
| 20260504150701 | 74 | 116 | 13.0 | 14.0 | 0.00 | 0.00 | 0.00 | 48 | 1014.6 |
| 20260504150600 | 74 | 117 | 8.0 | 14.0 | 0.00 | 0.00 | 0.00 | 48 | 1014.7 |
| 20260504150504 | 73 | 86 | 3.0 | 14.0 | 0.00 | 0.00 | 0.00 | 48 | 1014.6 |
| 20260504150401 | 73 | 103 | 4.0 | 14.0 | 0.00 | 0.00 | 0.00 | 47 | 1014.6 |
| 20260504150301 | 73 | 105 | 9.0 | 16.0 | 0.00 | 0.00 | 0.00 | 48 | 1014.6 |
| 20260504150203 | 73 | 117 | 7.0 | 16.0 | 0.00 | 0.00 | 0.00 | 49 | 1014.6 |
| 20260504141201 | 77 | 95 | 9.0 | 16.0 | 0.00 | 0.00 | 0.00 | 45 | 1014.7 |
| 20260504141103 | 77 | 77 | 4.0 | 16.0 | 0.00 | 0.00 | 0.00 | 46 | 1014.7 |
| 20260504141001 | 77 | 78 | 10.0 | 16.0 | 0.00 | 0.00 | 0.00 | 46 | 1014.6 |
| 20260504140901 | 77 | 78 | 5.0 | 16.0 | 0.00 | 0.00 | 0.00 | 42 | 1014.6 |
| 20260504140805 | 77 | 11 | 6.0 | 16.0 | 0.00 | 0.00 | 0.00 | 43 | 1014.6 |
| 20260504140700 | 77 | 43 | 7.0 | 16.0 | 0.00 | 0.00 | 0.00 | 43 | 1014.7 |
| 20260504140503 | 77 | 69 | 10.0 | 16.0 | 0.00 | 0.00 | 0.00 | 43 | 1014.6 |
| 20260504140401 | 77 | 57 | 14.0 | 16.0 | 0.00 | 0.00 | 0.00 | 47 | 1014.7 |
| 20260504140301 | 77 | 77 | 13.0 | 16.0 | 0.00 | 0.00 | 0.00 | 46 | 1014.6 |
| 20260504140203 | 77 | 94 | 16.0 | 17.0 | 0.00 | 0.00 | 0.00 | 45 | 1014.7 |
| 20260504140117 | 77 | 55 | 3.0 | 17.0 | 0.00 | 0.00 | 0.00 | 45 | 1014.7 |
| 20260504130702 | 78 | 101 | 9.0 | 14.0 | 0.00 | 0.00 | 0.00 | 48 | 1015.2 |
| 20260504130259 | 78 | 86 | 6.0 | 15.0 | 0.00 | 0.00 | 0.00 | 48 | 1015.2 |
| 20260504130202 | 78 | 97 | 6.0 | 15.0 | 0.00 | 0.00 | 0.00 | 50 | 1015.2 |